GFSGL_con_lsi_075.txt.gz
Lid_Strength_Index
1 1 1 1 1 0 1 1 0 0 0 0 0 0 0 0 0 0 0 0 1 1 0 1 1 0 1 0 1 1 1 2 4 4 5 4 5 5 6 4 3 3 3
1 1 1 1 1 1 1 1 0 0 0 0 0 0 0 0 0 0 1 1 1 1 1 1 1 1 1 1 1 2 3 4 4 5 7 7 7 6 6 5 3 3 2
1 1 1 1 1 1 1 1 0 0 0 0 0 1 1 0 0 0 0 1 1 1 1 1 1 1 1 1 2 3 3 4 5 5 8 7 7 7 6 6 6 4 4
1 1 2 1 1 1 1 1 1 0 1 1 0 0 0 0 0 0 0 1 1 1 1 1 1 1 2 2 4 4 5 6 7 7 8 8 8 7 8 7 7 6 6
2 2 2 1 1 1 1 1 1 1 1 0 1 1 0 1 1 1 1 1 1 1 1 1 1 3 5 4 4 5 6 7 8 8 9 9 9 9 9 7 8 7 7
2 2 1 1 1 1 1 1 1 1 1 1 1 1 1 1 5 7 4 2 2 2 2 1 2 6 7 9 9 8 7 7 8 8 10 10 10 9 9 9 10 11 11
2 2 2 1 2 1 1 1 1 1 1 1 1 1 1 1 7 8 8 1 2 1 2 3 7 8 9 11 13 13 13 13 12 10 11 11 11 11 10 11 12 11 11
2 2 2 2 2 1 1 2 1 1 1 1 1 1 1 1 10 9 9 2 1 2 4 7 10 12 12 13 14 15 15 15 15 13 12 13 13 12 12 12 11 11 10
2 2 2 2 2 2 2 2 1 1 2 2 1 1 2 1 11 10 9 9 12 13 13 12 13 14 14 13 15 15 15 16 15 15 15 15 15 15 15 13 13 13 13
2 2 2 1 2 2 2 2 1 1 2 2 7 8 10 8 12 11 11 12 15 15 15 15 15 15 15 15 15 16 17 17 17 17 17 16 16 17 17 15 14 15 15
2 1 2 1 2 2 2 1 2 3 7 10 13 13 13 13 13 12 13 14 16 17 17 17 16 15 15 15 15 15 16 16 17 15 15 15 15 14 14 15 14 15 15
2 2 2 2 2 2 2 4 7 9 12 14 15 16 16 15 15 15 15 15 15 17 17 17 16 15 16 16 17 16 16 16 16 15 16 16 16 16 15 15 14 14 14
3 5 7 8 8 7 8 11 12 12 13 14 15 17 17 16 16 15 15 15 16 16 16 16 16 17 17 18 18 17 16 16 16 17 17 16 16 16 16 16 15 15 15
11 11 12 12 13 13 13 12 12 13 15 16 17 18 18 18 17 16 16 16 16 16 17 17 17 16 17 18 18 17 17 17 17 17 17 17 17 16 16 16 16 16 17
14 14 15 15 16 17 17 16 16 15 15 16 17 18 18 19 18 17 16 17 17 17 17 17 17 17 17 17 18 18 17 17 18 18 18 18 17 17 17 17 17 17 18
15 16 16 17 17 17 17 18 17 16 16 16 16 17 17 16 16 16 16 16 16 16 16 17 16 16 17 17 17 18 18 19 18 18 18 18 18 18 18 18 18 18 18
16 17 17 17 17 18 18 18 19 17 16 16 16 16 16 16 16 16 17 16 16 15 16 16 16 16 17 17 17 18 18 18 18 18 18 18 18 19 19 19 19 18 18
16 16 17 17 17 18 18 18 18 19 19 19 16 16 17 17 17 16 16 16 17 17 17 18 18 18 18 18 18 18 18 18 18 19 19 19 19 19 20 20 19 19 19
17 17 17 17 17 17 17 18 18 19 19 19 18 18 17 16 16 16 15 16 17 18 18 18 17 18 18 18 18 18 19 19 19 19 19 19 20 20 20 20 19 19 19
15 17 16 16 16 16 16 17 17 17 18 18 18 18 16 17 18 18 17 17 18 18 18 18 18 18 19 19 19 19 19 19 19 20 20 20 20 19 20 20 20 19 19
15 14 15 16 16 16 17 18 18 18 19 19 19 18 18 18 19 19 20 19 19 19 19 19 19 20 19 19 20 20 20 20 20 20 20 20 20 20 20 19 19 18 17
16 16 16 17 16 16 16 17 17 18 19 19 19 19 19 19 20 20 21 20 20 20 20 20 20 20 20 21 21 21 21 21 20 20 20 20 20 19 19 18 18 17 17
16 16 17 17 18 18 18 18 18 19 19 19 19 20 20 20 20 21 21 20 20 20 21 20 21 21 21 21 20 20 20 20 20 20 20 20 19 18 18 18 17 17 17
17 17 18 18 18 18 19 19 19 19 19 20 20 20 20 20 20 21 21 21 21 21 21 21 21 21 22 21 20 20 19 19 19 19 19 19 18 18 17 17 17 16 15
18 18 19 19 19 19 20 20 20 20 20 20 20 20 20 20 20 20 20 21 21 21 21 21 21 21 21 21 21 20 20 21 21 21 20 19 18 18 17 16 15 14 13
19 19 20 19 20 20 20 20 20 20 20 20 20 21 20 21 21 21 21 21 22 22 21 20 20 20 20 19 18 20 21 21 21 21 20 19 18 16 14 13 13 13 13

GFSGL_con_lsi_078.txt.gz
Lid_Strength_Index
2 2 2 1 1 1 1 1 1 1 1 1 1 1 1 2 2 2 2 1 1 1 1 1 1 1 1 1 1 1 2 2 4 3 4 4 5 5 6 6 6 7 8
2 2 2 1 1 1 1 1 1 1 1 1 1 1 1 1 2 2 2 2 2 2 2 2 1 1 1 1 1 2 2 2 3 4 5 6 6 5 7 7 5 5 6
2 2 2 2 2 2 1 1 1 1 1 1 1 1 1 1 2 1 1 1 1 1 1 2 1 2 2 1 2 2 2 3 3 3 5 7 7 7 8 7 7 7 6
2 2 2 2 2 2 1 1 1 1 1 1 1 1 1 1 1 1 1 2 1 1 1 1 1 1 2 2 2 2 3 3 4 4 5 7 8 8 7 8 9 8 8
2 2 2 2 1 1 1 1 1 1 1 1 1 1 1 1 1 1 1 1 1 1 1 1 1 2 5 3 2 3 3 4 4 5 6 9 9 10 9 9 9 9 9
2 2 2 2 2 2 2 2 1 1 1 1 1 1 2 1 5 7 3 1 2 2 2 2 3 6 6 8 7 7 5 4 5 6 7 9 8 9 9 11 11 12 14
2 2 2 2 2 2 2 2 2 2 2 2 2 1 2 1 7 8 9 2 2 2 3 2 4 5 7 5 12 12 13 14 15 8 8 12 13 11 12 14 14 14 14
2 2 2 2 2 2 2 2 2 2 2 2 2 2 2 1 8 9 10 4 2 3 4 3 3 8 10 11 13 14 15 16 14 13 14 15 14 13 13 13 14 14 13
3 2 2 2 2 2 2 2 2 2 2 2 2 2 2 2 9 10 9 4 6 11 12 12 12 12 13 12 14 15 17 16 15 14 14 14 15 15 14 14 15 15 16
4 2 2 2 2 2 2 2 2 2 2 2 2 5 7 4 12 11 9 10 14 15 15 14 14 14 14 14 15 16 18 18 18 18 17 16 16 16 16 16 16 17 16
5 2 3 3 2 2 2 2 2 2 7 11 13 14 13 13 13 11 11 12 14 15 16 16 15 15 15 15 16 17 18 17 16 16 16 16 15 15 16 16 16 16 17
8 8 8 8 8 5 4 7 8 10 13 15 16 16 16 15 14 14 14 14 15 16 17 16 16 15 15 16 16 16 16 16 16 16 16 16 17 17 16 16 16 17 16
11 12 13 13 12 11 10 11 12 12 14 15 16 16 17 17 16 15 15 16 16 17 17 16 16 17 17 17 16 16 16 16 17 17 18 17 17 18 17 16 16 16 16
13 14 14 15 16 16 14 14 14 15 16 16 17 18 18 18 17 17 17 17 17 18 18 18 18 18 18 17 18 18 18 18 17 18 18 18 17 18 18 17 18 18 19
13 14 15 16 17 17 17 17 17 16 15 16 18 17 19 19 18 17 17 18 18 18 18 19 19 19 18 19 18 18 18 18 19 19 19 19 19 19 19 19 19 20 21
14 15 15 16 17 17 18 18 16 17 16 16 17 17 18 16 16 17 17 17 16 17 18 18 18 18 19 19 19 19 19 20 19 19 19 19 20 20 20 20 20 21 20
14 15 16 17 18 18 18 19 20 17 16 16 16 16 16 16 16 16 16 15 15 16 17 18 19 19 19 19 19 19 20 19 18 19 20 20 21 20 21 21 20 20 21
14 15 16 17 18 18 18 19 19 20 21 19 18 17 17 16 16 16 16 17 18 18 19 19 19 19 19 19 19 20 20 20 20 20 21 22 23 21 22 22 22 24 22
15 15 15 16 16 17 17 19 19 19 20 19 19 18 18 17 17 17 17 19 20 20 20 20 20 19 19 20 20 20 20 21 22 22 22 22 25 24 25 24 24 24 24
15 15 16 16 17 17 18 19 20 20 20 20 19 19 19 20 21 21 20 20 20 20 20 21 20 21 21 21 21 21 22 22 22 23 25 26 27 25 26 26 26 25 22
16 16 16 16 17 18 18 19 19 20 20 20 20 20 20 21 22 22 22 22 22 22 21 21 21 21 21 22 22 22 23 24 23 23 24 23 27 26 24 24 24 23 21
16 17 17 17 17 18 18 18 19 19 19 20 20 20 20 21 21 22 22 22 22 22 22 22 22 23 23 23 24 25 25 26 25 24 25 25 25 25 24 23 24 23 20
17 17 17 18 18 19 19 19 19 20 20 20 20 21 21 22 22 22 23 22 22 23 23 23 23 23 24 24 23 23 24 23 23 24 27 27 25 23 24 23 21 21 21
18 18 18 19 19 19 19 20 20 20 20 21 21 22 22 22 22 23 23 24 23 23 24 25 23 25 25 27 26 26 23 25 25 25 25 24 24 22 23 21 20 21 19
19 20 20 20 20 20 21 21 21 21 21 21 21 21 21 21 22 23 24 23 24 25 24 23 25 25 25 27 26 25 26 27 28 27 26 23 23 23 21 19 19 17 17
20 20 20 20 20 21 21 21 21 22 22 22 22 22 22 22 23 23 23 26 27 25 25 25 23 25 25 23 23 25 27 26 26 25 25 21 22 20 19 19 20 17 16

GFSGL_con_lsi_081.txt.gz
Lid_Strength_Index
2 2 2 2 1 1 1 1 1 1 1 2 2 2 2 2 2 3 2 2 2 2 1 1 2 1 2 1 1 1 2 2 4 3 3 4 5 3 3 3 4 5 7
2 2 2 2 1 1 1 1 1 1 1 1 2 3 3 2 2 3 3 3 3 3 2 2 2 2 2 2 1 2 2 1 3 4 3 6 5 5 4 6 5 5 6
3 2 2 2 2 2 2 1 1 1 1 1 1 2 3 2 2 2 3 3 3 2 2 2 3 3 3 3 2 2 2 2 2 3 3 5 4 7 7 7 6 6 6
3 3 2 2 2 2 1 1 1 1 1 1 1 2 2 2 2 2 2 3 3 2 2 2 2 2 2 2 2 2 2 2 2 2 3 4 6 7 6 7 9 7 7
3 4 3 3 2 2 2 1 1 1 1 1 1 2 2 2 1 2 2 3 3 3 3 2 2 3 5 3 2 2 2 2 2 3 4 4 9 10 8 7 8 8 9
3 3 3 3 2 2 2 2 2 2 2 1 1 1 2 1 5 8 4 2 3 3 3 3 2 5 5 7 7 6 4 2 3 4 4 5 6 7 7 8 10 13 13
3 3 3 3 3 2 2 2 2 2 2 2 2 2 2 2 8 8 8 2 3 3 2 2 2 3 6 3 10 12 12 12 13 5 4 4 9 10 12 14 14 14 14
5 4 3 3 3 3 3 3 2 2 3 2 2 2 2 2 8 9 10 3 2 3 3 3 4 6 7 9 12 14 15 14 14 12 12 13 13 13 12 13 13 14 13
7 6 4 5 6 3 3 3 3 3 3 3 2 2 2 2 9 9 10 5 4 3 9 9 6 8 11 11 13 15 16 16 13 13 14 13 13 13 14 13 14 15 15
7 6 7 7 7 8 5 3 3 3 3 3 3 3 5 3 10 10 9 4 9 14 15 15 14 13 13 13 14 15 17 17 17 16 17 16 16 15 15 15 14 16 16
7 8 9 10 10 9 9 5 3 3 4 5 9 13 13 12 12 12 11 10 10 15 16 16 15 14 13 14 14 15 17 17 17 17 17 17 16 16 16 15 15 16 17
9 10 11 12 13 13 12 11 10 7 10 14 16 17 16 16 15 14 14 14 14 15 17 16 16 15 15 16 16 16 16 16 17 17 17 18 18 18 18 17 17 17 17
10 11 12 12 14 15 15 15 13 12 13 15 15 17 18 17 17 16 16 16 16 17 17 16 16 16 16 16 17 17 17 18 18 18 19 19 19 18 17 17 17 17 17
11 12 13 14 14 15 16 16 16 17 15 16 17 18 18 18 18 18 17 18 17 19 18 18 19 19 19 19 19 18 18 18 19 19 20 19 18 18 19 18 19 19 19
12 13 13 14 14 15 15 16 16 16 16 17 17 17 18 19 19 18 18 20 19 20 19 19 19 20 20 20 20 20 19 19 20 20 20 20 20 20 20 19 19 19 20
14 14 14 14 15 15 15 16 15 16 16 16 16 17 16 16 16 16 16 16 17 17 19 19 20 20 20 21 21 22 21 20 20 20 20 21 21 21 21 20 20 21 21
15 14 15 15 15 16 16 17 18 17 16 16 16 15 16 15 15 15 16 16 17 18 20 20 21 21 21 21 21 21 22 21 21 21 21 21 21 21 21 22 22 22 22
14 15 15 15 16 16 17 17 18 19 20 20 18 17 16 16 16 17 17 18 20 20 20 21 21 21 21 21 21 21 21 21 21 21 22 22 23 23 23 23 23 25 24
15 16 16 16 17 17 17 17 18 18 19 20 19 20 19 18 18 18 19 21 22 22 22 22 22 21 21 21 21 22 22 23 23 23 24 25 27 26 27 27 27 26 25
17 16 17 17 18 18 19 19 20 20 21 21 22 22 21 22 22 22 22 22 22 22 22 22 22 22 22 22 23 23 23 24 24 24 26 27 28 26 27 27 27 27 24
18 18 18 18 18 18 18 19 20 20 21 21 22 21 21 22 23 23 23 24 23 23 23 23 23 24 23 24 23 24 25 25 25 25 26 28 31 30 26 27 28 25 24
17 18 18 19 19 19 19 19 20 20 21 21 21 21 21 22 23 23 24 24 24 24 23 24 25 25 25 25 25 27 27 27 28 29 29 28 27 27 28 28 29 29 26
19 20 19 19 20 20 20 20 21 22 22 22 22 23 24 24 25 25 25 24 25 25 25 25 27 27 26 27 27 26 27 28 29 30 30 31 28 29 31 29 28 27 27
19 20 21 21 22 22 23 23 22 23 23 23 24 24 24 24 26 27 27 26 26 29 26 27 27 27 27 30 29 27 27 31 30 31 33 33 30 27 28 26 25 25 21
21 21 22 22 23 24 25 25 25 26 26 26 24 24 24 25 26 27 30 29 28 28 25 27 29 29 30 28 28 28 30 29 32 30 31 29 30 30 27 22 22 23 24
21 22 23 23 24 25 27 27 28 28 29 28 25 27 31 28 25 29 31 29 28 26 28 28 28 27 25 25 26 27 29 28 29 26 28 26 26 26 26 26 24 24 20

GFSGL_con_lsi_084.txt.gz
Lid_Strength_Index
2 2 2 1 1 1 1 1 1 1 2 2 2 2 2 1 1 2 1 1 2 1 1 2 2 2 2 2 2 2 2 2 4 3 2 2 3 2 2 3 2 3 3
3 3 2 1 1 2 1 1 1 1 1 1 2 2 2 2 2 2 2 2 3 2 2 2 2 2 2 2 2 2 2 2 3 4 3 4 5 3 2 2 3 3 3
3 3 3 2 2 2 1 1 1 1 1 1 2 2 2 2 2 2 2 2 3 3 3 3 3 2 3 2 2 2 2 2 3 3 3 2 2 5 6 6 5 5 5
4 4 4 4 3 2 2 1 1 1 1 1 1 2 3 3 3 3 3 3 3 3 3 3 3 3 2 2 2 2 2 2 2 3 3 2 3 5 5 5 7 6 6
4 4 4 4 3 3 3 2 2 1 1 1 1 1 2 2 3 3 3 3 3 3 3 3 3 3 5 4 3 3 3 3 3 3 3 3 5 8 7 5 5 5 8
4 3 3 3 3 4 3 3 3 3 2 2 2 2 2 2 6 8 5 3 3 4 4 4 3 6 6 8 7 7 4 3 3 3 3 4 3 5 4 5 7 11 12
6 6 4 5 3 3 2 2 3 3 3 3 3 2 2 2 7 8 9 3 3 3 3 3 4 4 7 4 8 9 10 11 10 2 3 3 3 3 4 8 9 11 13
8 7 6 6 7 6 5 3 2 3 3 3 3 3 3 2 8 9 10 4 3 3 3 3 4 4 4 5 7 9 10 12 12 11 9 9 11 10 9 10 12 14 14
9 9 9 8 8 7 9 8 6 2 3 3 2 3 3 2 9 9 10 4 3 3 3 3 3 4 6 9 9 12 15 15 13 13 13 13 13 13 12 12 14 14 16
9 10 10 10 10 9 9 8 7 7 2 2 3 3 5 3 8 10 9 4 5 5 4 11 13 9 8 11 6 11 14 16 16 16 17 16 15 15 15 14 14 16 17
10 11 11 12 11 11 11 10 9 9 9 4 4 11 11 14 13 13 11 5 5 7 11 16 16 14 14 14 14 14 15 17 17 17 18 17 18 18 18 17 17 16 17
11 12 13 13 13 13 13 12 12 11 11 13 15 16 16 16 16 15 14 14 14 14 17 16 16 15 15 16 16 16 16 17 17 18 19 19 19 19 18 18 18 18 17
11 13 13 13 14 13 13 14 14 12 14 15 16 17 18 17 17 17 16 16 16 17 17 17 16 17 16 17 16 17 17 18 18 20 20 20 19 19 18 18 18 18 18
13 13 13 14 14 14 14 14 14 14 14 15 15 17 18 18 18 19 19 19 18 18 20 19 19 19 19 19 19 19 19 19 20 20 21 20 20 20 21 20 21 20 20
13 13 14 14 14 15 14 14 14 14 14 15 16 17 18 19 18 18 18 19 18 18 18 19 19 20 21 21 21 21 21 20 21 21 22 22 21 22 21 21 21 21 22
14 14 14 14 15 15 16 16 14 14 13 13 13 14 15 15 15 15 15 16 16 16 18 20 21 21 22 22 22 22 21 22 22 22 22 22 23 23 22 22 22 22 23
15 15 15 16 16 17 17 17 18 16 15 15 14 14 14 15 16 16 16 17 17 18 21 21 21 21 22 22 22 23 23 22 21 22 22 22 23 23 23 23 23 23 23
17 17 16 16 17 17 17 18 18 18 20 20 18 17 16 16 16 17 17 19 21 20 21 22 22 23 22 22 22 23 23 23 23 23 24 24 24 24 24 24 24 25 24
17 17 17 18 18 19 19 19 20 20 20 21 20 20 20 17 18 19 19 21 22 22 22 23 23 22 22 22 23 23 24 24 25 25 25 25 25 25 25 26 26 26 26
18 18 18 18 19 20 20 20 21 21 21 22 22 22 21 21 23 23 23 23 23 23 23 23 23 23 23 23 24 24 24 24 25 26 28 29 30 28 27 27 28 28 25
18 18 19 19 19 20 20 21 21 21 22 22 23 22 22 23 24 24 25 25 24 24 24 25 25 25 24 25 25 26 27 28 28 29 28 28 30 30 27 28 28 26 25
18 18 19 19 19 20 20 21 22 22 22 23 24 24 24 24 24 25 26 26 26 25 25 26 26 26 27 27 27 29 31 32 32 32 31 31 30 30 30 29 30 30 28
19 20 20 20 20 21 21 21 23 24 24 25 25 25 26 27 27 27 27 28 27 28 28 28 29 29 29 30 29 28 29 31 32 34 34 34 30 31 34 32 30 30 30
20 20 21 22 23 23 24 25 24 24 25 25 26 26 27 29 31 31 31 32 30 30 31 31 29 29 29 33 31 30 30 35 33 34 36 34 31 30 32 30 28 29 29
22 23 24 24 25 25 25 25 27 27 27 28 29 29 27 29 30 34 33 30 28 29 29 30 31 30 30 30 30 30 31 31 33 33 33 32 33 33 31 29 30 27 28
22 23 24 24 25 27 28 28 30 30 29 31 31 34 33 31 34 37 35 33 32 31 30 30 29 30 30 29 28 29 30 29 31 30 33 30 31 31 31 30 28 28 24

GFSGL_con_lsi_087.txt.gz
Lid_Strength_Index
3 2 2 2 1 1 1 1 1 1 2 3 2 2 2 2 1 1 1 1 1 1 1 2 3 3 3 3 3 3 3 3 4 3 3 3 4 3 2 3 3 3 3
4 3 3 2 1 1 1 1 1 1 1 2 2 2 3 2 2 1 1 1 2 2 1 2 2 1 2 2 2 2 3 3 3 4 3 3 4 3 2 2 2 2 2
4 4 4 4 3 2 1 1 1 1 1 1 1 2 2 3 2 2 2 2 2 2 2 2 2 2 3 3 3 3 3 3 2 3 3 3 3 3 3 3 3 2 2
4 4 4 4 3 3 3 1 1 1 1 1 1 1 2 2 3 3 3 3 2 2 2 2 2 3 2 2 3 3 3 3 3 3 3 2 2 2 4 4 5 5 4
3 3 3 3 3 2 3 2 2 2 1 1 1 1 1 2 2 2 3 3 3 3 3 3 3 3 5 4 2 3 3 3 3 3 3 3 3 4 5 3 4 3 4
6 5 3 2 3 2 3 3 2 2 2 2 2 2 2 2 6 7 4 3 3 4 4 4 3 6 6 9 8 7 5 4 4 4 4 4 4 3 3 3 3 5 7
9 8 8 8 7 6 5 3 3 3 3 3 3 2 3 3 8 9 9 3 3 3 3 3 3 3 6 4 8 9 9 9 8 3 4 4 4 3 2 4 4 4 5
11 11 10 9 9 8 8 8 7 6 3 2 2 2 3 2 8 9 10 5 4 4 3 3 3 4 4 5 5 6 7 6 7 7 5 4 3 5 5 4 3 10 13
12 13 12 12 11 11 11 10 9 8 8 7 3 2 2 2 8 9 10 5 5 5 4 3 3 4 6 8 5 6 7 14 13 13 13 14 14 13 11 11 13 13 15
13 14 13 14 13 13 13 12 11 9 9 8 7 8 12 12 14 14 11 4 5 5 4 4 8 5 8 10 7 6 7 14 16 17 17 17 17 16 16 15 13 13 17
13 14 14 15 14 14 13 12 12 11 10 11 12 14 15 16 16 15 14 11 6 5 6 7 16 15 15 14 12 6 9 16 17 18 18 18 18 18 18 18 18 17 19
13 15 14 14 14 13 13 14 13 12 12 13 13 14 16 16 15 15 15 15 14 15 16 16 16 16 16 16 16 16 16 17 18 19 19 19 19 20 19 18 18 18 18
13 14 14 14 14 13 14 14 14 13 13 13 14 15 16 16 16 16 16 16 16 17 17 17 17 17 17 18 18 18 18 19 19 20 22 21 20 19 19 19 19 19 19
14 14 14 15 14 15 14 14 14 14 14 15 15 15 15 15 15 16 17 17 16 17 18 18 18 19 20 19 19 19 19 19 20 21 22 21 21 21 21 21 21 21 21
14 14 14 14 15 15 15 15 15 14 14 15 15 15 16 16 14 14 14 17 17 17 18 18 20 20 20 21 20 20 20 20 21 21 22 22 23 22 22 21 21 22 22
15 15 15 16 16 16 16 17 15 15 14 14 14 14 15 14 14 14 15 15 15 17 19 21 21 21 21 21 22 22 22 21 22 22 22 23 23 23 23 23 23 23 24
16 16 16 16 17 17 18 18 20 18 16 15 15 15 14 15 15 15 15 16 17 18 20 21 21 21 22 21 22 22 23 23 23 23 23 23 23 23 24 25 24 24 24
18 18 18 19 19 20 20 21 21 22 22 21 18 17 16 16 16 16 16 18 21 20 21 22 22 22 22 22 22 23 23 24 24 24 24 24 23 23 24 24 24 24 24
18 19 20 20 21 21 21 21 22 22 22 22 22 21 20 18 18 18 19 21 22 22 22 23 23 23 23 23 23 23 24 24 24 25 25 25 25 25 26 25 25 25 25
20 20 21 20 21 21 22 22 22 22 23 23 24 23 22 23 24 24 24 23 23 24 24 24 23 24 23 23 24 24 25 25 25 26 27 27 27 26 27 27 27 27 25
21 20 21 20 21 21 21 21 22 22 23 24 25 24 24 25 26 26 26 26 26 26 26 25 26 26 25 25 26 27 28 28 28 28 27 28 31 29 28 28 28 27 26
20 19 19 20 20 21 21 22 22 23 24 24 24 25 25 26 26 27 28 28 28 27 27 28 28 27 27 27 28 29 30 32 31 31 30 30 29 29 29 30 31 31 29
20 21 20 21 21 23 23 23 23 24 24 25 25 26 27 28 28 28 29 30 28 29 30 30 31 30 30 31 30 30 30 32 32 35 35 33 31 32 34 32 30 30 30
22 22 21 23 23 24 25 26 25 25 25 26 27 28 29 30 30 30 30 30 30 32 34 35 32 31 31 35 33 31 30 35 33 34 36 35 33 32 33 30 30 32 31
23 24 24 25 25 26 26 27 28 28 28 29 31 30 29 30 30 34 32 31 32 34 32 34 32 31 32 33 32 31 31 32 35 34 34 34 34 33 32 30 32 29 30
23 24 25 25 26 27 28 30 32 32 32 33 34 35 34 34 35 38 35 34 33 33 31 32 31 31 31 29 29 30 31 31 32 32 35 31 32 33 33 32 30 30 26

GFSGL_con_lsi_090.txt.gz
Lid_Strength_Index
4 2 2 1 2 1 1 2 3 3 3 3 3 3 3 2 2 2 2 2 2 2 1 2 2 2 3 3 3 3 3 4 5 4 3 3 4 3 3 2 2 2 3
3 3 2 2 2 1 1 1 1 2 3 3 3 3 3 3 2 3 3 2 2 2 2 2 2 2 2 2 2 3 3 3 3 4 3 3 3 2 2 2 3 2 2
4 4 4 3 3 2 1 1 1 1 1 2 3 3 3 3 2 2 2 2 2 2 2 2 2 2 2 2 2 2 2 2 2 3 3 2 2 3 3 3 2 2 2
4 4 4 4 4 4 3 2 1 1 1 1 1 1 2 2 3 3 3 2 2 2 2 2 1 2 2 2 2 3 3 3 3 3 3 3 2 2 3 3 3 3 2
3 3 3 4 3 3 3 3 2 2 2 2 2 2 1 1 2 2 2 2 3 3 2 2 2 2 5 3 2 2 3 3 3 3 3 3 3 3 4 3 3 2 2
8 8 8 7 4 4 3 3 3 3 3 2 3 3 3 3 7 8 5 3 3 3 3 3 3 6 6 8 8 7 4 3 4 4 4 4 4 3 3 3 3 4 5
11 10 10 9 8 8 7 7 7 5 2 2 2 2 3 3 8 9 10 4 3 4 4 4 4 3 6 4 8 10 9 9 8 3 4 4 5 3 3 4 4 4 4
13 13 13 12 11 11 10 10 10 9 8 7 6 3 2 2 11 10 10 5 4 3 4 4 4 4 4 5 5 5 7 6 6 7 5 3 3 3 3 4 4 5 12
15 15 15 14 14 13 12 12 11 10 9 8 9 11 13 12 14 14 12 5 4 4 3 3 4 4 6 8 6 6 6 7 13 12 13 14 14 14 13 8 10 12 14
15 16 16 15 15 15 15 14 12 11 10 10 13 14 14 14 14 14 13 10 7 5 4 4 10 13 15 12 7 6 7 7 15 17 17 17 16 16 16 17 14 10 14
16 16 16 16 15 15 15 14 13 12 12 12 13 14 15 14 15 14 13 12 13 15 16 16 16 15 15 14 14 13 13 16 17 18 18 18 19 18 19 18 19 17 19
15 16 16 15 15 15 15 14 14 13 14 14 14 14 14 15 14 13 13 14 14 16 17 17 16 16 16 15 16 16 16 18 19 20 20 20 21 20 20 20 20 19 19
15 16 16 16 15 14 15 14 14 14 14 14 15 15 15 14 14 13 13 13 14 16 16 16 17 17 18 18 18 18 18 19 19 20 21 22 21 20 20 20 19 20 21
15 15 15 16 16 16 15 14 14 14 15 15 15 15 15 15 15 15 15 15 15 16 16 17 17 18 19 20 19 19 20 20 20 22 22 22 21 22 21 20 21 21 23
14 15 15 15 15 16 16 16 15 14 14 15 15 15 16 16 15 14 15 16 17 17 17 18 19 19 19 20 20 20 20 20 21 20 22 22 21 21 22 21 22 22 24
15 16 17 17 17 17 17 17 15 15 14 14 14 15 15 14 14 14 14 15 15 16 19 20 20 20 20 20 21 21 21 21 21 21 21 21 22 22 23 23 23 23 24
18 18 18 19 19 19 20 20 22 19 16 16 15 15 14 15 15 15 15 16 17 18 21 21 21 21 21 21 22 22 22 22 21 22 22 22 22 23 23 24 23 23 24
20 20 20 21 21 22 22 23 23 23 23 23 19 18 16 16 16 16 17 19 22 21 22 22 22 22 22 22 22 22 23 23 23 23 24 23 23 23 23 23 23 23 23
20 21 23 23 23 23 23 23 23 24 24 24 24 23 22 19 19 19 20 23 24 23 23 23 23 23 23 23 23 23 23 24 24 24 24 24 24 24 24 24 24 25 24
22 21 22 23 23 23 23 23 24 24 25 26 26 26 25 24 26 26 26 26 26 25 25 25 25 24 24 24 25 24 25 25 25 25 26 26 25 25 25 25 25 25 25
22 21 22 21 22 22 23 23 24 25 25 26 27 26 25 25 27 27 27 28 27 27 28 27 27 26 26 26 26 27 28 29 27 27 26 27 28 27 26 26 25 25 24
22 21 21 22 22 23 23 23 24 24 24 25 26 26 27 27 26 27 28 28 28 27 27 27 27 27 27 27 28 28 30 31 30 30 28 28 27 27 27 27 27 27 26
22 23 22 22 23 25 25 24 25 26 27 27 26 26 27 28 28 28 29 29 29 29 28 28 28 28 29 30 30 29 29 30 31 32 31 30 28 28 29 28 27 27 27
23 24 23 25 25 26 28 29 28 27 27 29 32 30 29 30 31 30 30 32 32 33 33 32 30 29 29 32 31 29 29 32 31 31 33 31 28 28 28 27 26 28 27
25 27 27 27 28 30 31 30 31 32 32 33 32 32 30 31 30 34 35 35 33 33 31 32 32 31 32 33 31 30 31 32 33 33 31 30 30 30 28 27 27 25 26
24 25 26 27 29 30 32 33 35 35 35 35 36 37 35 32 32 36 33 32 31 30 29 31 30 30 30 28 28 30 31 31 31 33 31 28 28 28 28 27 27 25 24

GFSGL_con_lsi_093.txt.gz
Lid_Strength_Index
2 2 1 1 1 1 1 1 1 1 0 0 0 2 2 1 1 1 1 1 2 2 2 2 3 2 2 2 2 2 3 3 5 4 3 1 1 1 1 1 1 2 2
2 3 1 1 1 1 1 1 0 0 0 0 0 1 1 0 0 1 1 1 1 2 1 1 1 1 2 1 2 2 1 1 3 4 3 1 1 0 2 2 2 2 2
3 3 2 1 1 1 1 1 1 1 0 1 0 1 1 1 1 1 1 1 1 1 1 1 1 1 1 1 1 1 1 1 1 2 2 1 0 0 0 1 1 1 1
3 3 3 3 2 1 1 1 1 1 1 1 1 1 1 1 1 1 1 1 1 1 0 0 0 1 1 1 1 1 1 1 1 2 2 2 1 0 0 1 2 0 1
3 4 3 2 2 1 1 1 1 1 1 0 1 1 1 1 1 1 1 1 1 1 1 1 1 1 4 2 1 1 1 2 2 3 3 2 2 2 2 1 2 1 1
10 10 8 7 7 7 6 3 2 2 2 2 1 1 1 1 6 8 4 1 1 1 1 1 0 4 4 8 7 7 2 2 2 3 3 4 3 3 2 2 2 3 4
13 12 11 10 10 9 8 8 8 8 6 5 4 3 2 7 14 12 11 3 3 4 3 3 3 2 5 2 7 10 9 9 8 3 4 4 4 3 3 3 3 3 4
15 14 14 13 12 12 11 11 11 10 8 8 10 11 10 13 14 14 14 9 4 3 3 3 3 3 4 4 4 4 5 4 6 6 5 4 4 8 7 5 4 3 3
15 15 15 14 13 13 13 12 11 10 10 12 13 14 14 15 15 14 14 9 6 5 3 7 12 11 13 12 7 5 5 6 14 12 14 15 16 16 15 12 10 11 8
16 15 14 14 14 14 14 13 12 12 12 13 14 14 15 15 15 14 13 10 10 12 14 15 15 14 14 14 11 10 8 9 16 17 17 17 17 17 17 17 16 14 14
16 16 15 15 15 15 14 14 14 14 14 15 15 14 14 14 13 13 13 12 12 14 15 16 16 16 16 15 15 15 15 16 17 18 18 19 19 19 19 20 19 19 19
15 17 17 17 16 16 16 16 15 15 16 16 15 15 15 14 14 13 13 13 13 14 15 15 15 15 15 16 16 16 16 17 18 20 20 20 19 19 20 19 20 20 20
16 17 17 17 16 16 16 16 16 16 15 15 15 15 15 14 13 14 13 14 14 14 14 15 15 15 15 15 15 16 17 18 18 20 20 20 19 18 17 17 17 19 19
16 16 16 17 16 16 16 15 15 15 15 15 15 15 14 14 14 13 13 13 14 14 14 14 15 15 16 15 15 15 15 15 16 16 17 16 16 17 17 17 17 19 19
15 15 15 16 16 16 16 15 15 14 14 14 14 14 14 15 14 14 14 14 14 15 15 14 15 15 16 16 16 16 15 15 16 16 16 17 17 17 17 17 18 18 20
16 16 16 16 16 16 16 17 15 15 14 14 14 14 14 14 14 14 15 15 16 15 15 16 17 17 17 17 17 17 17 17 17 16 16 17 18 18 18 18 18 19 20
17 17 17 17 17 17 18 18 18 18 17 17 16 15 15 15 15 16 16 16 16 16 17 17 18 18 18 18 18 18 19 18 18 18 18 18 18 19 19 19 19 20 21
18 19 17 18 18 18 18 19 19 19 19 20 19 18 17 17 17 17 17 17 17 17 18 18 19 18 18 19 19 19 19 19 19 19 19 19 19 19 20 20 20 20 20
17 18 18 18 19 19 19 19 19 19 20 20 19 19 20 19 19 19 19 19 19 19 19 19 19 19 19 19 19 19 20 20 20 20 20 20 20 20 21 21 21 22 21
18 19 19 18 18 18 19 19 20 20 21 21 21 21 20 20 21 21 21 20 21 20 20 20 20 20 20 20 20 20 20 21 21 21 21 21 21 21 21 22 21 21 21
17 18 19 18 18 19 19 20 20 21 21 22 22 23 24 21 21 21 21 21 21 21 21 21 21 21 21 21 21 21 22 21 22 21 21 21 22 22 21 21 21 21 21
17 18 18 19 19 19 20 20 20 21 21 22 22 22 23 21 21 22 22 22 22 21 21 21 22 22 23 22 22 22 23 23 23 22 22 22 21 21 21 21 21 21 21
18 18 19 19 19 21 20 20 21 21 22 22 22 22 22 23 23 23 23 23 23 23 22 22 23 23 23 23 23 22 23 24 24 23 22 21 21 21 20 20 21 21 21
19 20 20 21 21 21 21 22 22 23 23 23 23 23 23 23 23 24 24 23 23 23 23 23 23 23 23 23 22 22 23 23 23 23 24 22 21 21 20 20 20 21 20
20 20 21 21 22 22 22 22 22 22 23 23 23 23 23 23 23 23 23 23 23 23 23 23 23 23 24 25 24 24 25 26 25 26 22 22 22 22 21 19 20 18 20
20 20 20 20 21 21 21 22 22 22 23 23 23 23 23 23 23 23 23 23 23 23 23 23 23 24 24 23 23 24 25 25 24 25 22 20 20 19 19 20 22 18 19

GFSGL_con_lsi_099.txt.gz
Lid_Strength_Index
2 2 2 1 1 1 1 1 1 1 1 1 2 2 3 4 4 4 4 4 4 3 3 2 2 1 1 1 1 1 1 1 4 2 1 1 1 1 1 -0 -1 -1 -1
2 2 2 1 1 1 1 1 0 1 0 0 1 2 3 3 3 3 4 4 5 4 3 4 3 2 2 0 1 1 1 1 2 3 1 1 1 0 -0 0 -0 -1 -1
2 2 2 2 1 1 1 1 1 1 1 0 1 1 2 3 3 3 3 3 3 3 3 2 1 1 1 1 1 1 1 1 1 2 2 1 1 0 0 0 0 -0 -1
3 2 2 2 2 1 1 1 1 1 1 1 1 1 1 1 2 2 3 2 1 1 0 1 0 1 3 1 2 2 1 2 1 2 2 2 1 1 1 2 2 0 1
8 8 5 2 2 1 1 1 1 1 1 1 1 1 1 1 5 5 2 2 1 1 1 1 1 2 5 4 2 2 1 2 2 3 3 3 2 2 2 1 2 1 1
12 12 9 8 8 7 6 5 1 2 2 2 5 2 8 11 14 13 11 1 1 1 2 1 1 5 4 7 8 7 4 2 2 3 3 3 3 2 2 2 2 3 4
13 13 12 11 10 10 8 8 9 9 8 9 10 11 12 13 14 13 14 5 1 2 5 4 3 7 10 9 8 10 9 10 12 5 4 3 4 10 10 6 4 4 5
14 14 13 13 13 12 11 11 12 13 13 13 12 13 14 14 15 14 14 8 10 13 13 13 12 13 14 13 10 8 8 14 13 12 15 16 16 16 15 12 11 11 10
16 15 15 14 14 12 13 13 14 14 15 15 15 14 15 16 15 14 10 11 14 15 16 15 15 15 15 14 10 9 13 16 15 16 16 16 16 16 16 12 15 14 13
16 16 16 15 15 15 14 14 14 15 16 15 16 15 15 16 16 15 12 13 15 16 16 17 17 16 16 15 13 12 16 17 17 17 18 18 17 17 17 17 17 15 15
15 15 15 16 15 14 14 14 14 14 14 15 15 15 16 16 16 15 14 13 15 16 16 16 16 16 16 16 15 15 16 15 16 16 16 16 15 15 15 14 14 14 15
15 16 15 15 15 14 14 15 14 14 15 14 15 15 15 16 17 16 16 15 15 15 16 16 16 16 16 15 15 15 15 14 14 14 15 15 15 14 14 14 14 14 14
15 16 17 17 17 16 16 16 15 15 16 16 16 17 17 16 15 16 16 16 16 16 15 16 16 15 14 14 14 13 13 12 12 13 14 14 13 13 12 12 12 13 14
15 15 16 17 17 17 17 17 18 17 17 17 17 17 17 17 16 13 14 14 14 14 14 13 14 14 14 13 13 12 12 13 13 13 13 13 12 13 13 13 13 13 13
14 14 14 15 17 18 18 17 17 17 17 17 18 17 18 18 17 16 15 15 14 13 13 13 13 13 13 13 13 13 13 13 14 13 14 14 14 14 14 13 14 14 15
13 14 13 13 13 14 16 18 17 17 16 16 16 16 17 16 15 14 13 13 13 12 13 14 14 14 14 14 15 15 15 15 14 14 14 15 15 15 15 14 14 15 15
14 13 13 14 14 14 14 14 16 17 17 16 16 16 16 16 15 14 14 14 14 13 14 15 15 15 15 15 15 15 16 16 15 15 15 15 15 15 15 15 15 15 15
14 14 14 14 14 14 14 14 14 15 16 17 17 17 17 16 16 15 14 13 14 14 15 15 15 15 15 16 16 16 16 16 15 15 16 15 15 15 15 16 16 16 15
14 14 14 14 14 14 14 14 14 15 15 15 15 15 15 16 16 15 15 15 16 16 16 16 16 16 16 16 16 16 16 16 16 16 16 16 15 15 15 15 15 16 16
14 15 14 14 14 14 14 14 15 15 15 17 18 18 15 15 16 16 16 16 16 16 16 16 16 16 16 16 16 16 16 16 16 16 16 16 15 15 16 16 16 17 17
13 14 14 14 14 14 14 15 15 15 16 17 19 19 18 16 17 17 17 17 17 17 17 17 17 17 17 17 16 17 17 17 17 17 17 17 16 17 16 16 16 16 17
13 14 14 14 15 15 15 15 15 16 16 16 17 18 18 16 17 17 17 18 17 17 17 17 17 18 18 18 18 18 18 19 19 19 18 17 17 16 16 16 16 16 16
14 14 14 15 15 15 15 15 15 16 16 16 16 17 17 17 18 18 18 18 18 18 19 19 19 19 19 18 18 18 20 20 20 19 20 18 17 17 17 16 16 17 17
14 14 15 15 15 15 15 16 17 18 17 16 17 17 17 17 18 18 18 18 18 18 19 18 19 20 21 20 19 19 21 22 21 20 20 19 18 17 17 16 16 16 16
14 15 15 15 16 16 16 16 16 17 17 17 17 17 17 17 17 17 18 18 19 18 19 18 19 19 20 20 20 21 22 23 22 22 20 18 17 18 17 17 16 16 15
15 15 15 15 15 16 16 16 16 16 17 17 16 17 17 17 18 17 18 19 19 19 19 18 18 20 19 18 20 21 22 22 22 22 21 18 17 16 16 16 15 15 15

GFSGL_con_lsi_105.txt.gz
Lid_Strength_Index
4 4 4 3 3 3 2 3 3 3 2 1 2 2 2 2 2 2 2 2 3 3 3 3 3 3 3 3 3 3 3 3 5 4 3 3 3 2 1 1 1 1 1
8 4 3 3 3 3 3 3 3 2 1 2 2 2 2 2 2 2 3 3 3 3 3 3 3 2 4 4 3 3 3 3 4 4 4 3 3 2 2 2 2 1 0
10 2 3 3 3 3 2 3 2 2 1 1 2 2 3 2 2 2 2 3 3 3 2 3 3 3 3 3 3 3 3 2 3 4 4 3 3 2 2 2 2 1 1
11 10 8 3 3 2 2 2 1 2 2 2 2 2 2 2 3 3 3 3 2 2 3 3 3 3 3 4 4 4 3 3 4 4 4 4 3 3 3 3 3 2 2
13 12 11 9 6 5 5 2 1 1 1 1 1 2 2 3 6 3 3 3 3 3 3 3 3 4 6 5 3 4 4 4 5 4 4 4 4 3 3 3 2 2 3
13 13 12 12 12 11 9 9 7 8 8 9 9 9 10 11 13 13 8 4 3 4 4 3 3 7 8 11 10 11 8 3 4 4 4 4 4 3 6 5 5 5 6
14 14 13 13 13 13 13 13 13 13 12 13 13 13 13 13 13 12 12 7 8 9 10 8 9 12 11 8 12 13 13 13 15 8 5 7 10 13 12 10 8 8 9
15 15 14 13 13 14 14 14 15 14 14 15 14 14 13 13 13 13 13 13 14 14 14 14 13 13 14 11 12 14 15 15 15 14 15 15 16 16 15 12 12 11 14
16 16 15 15 14 14 14 14 14 16 16 16 16 16 15 14 14 14 14 15 15 15 15 15 15 15 14 11 13 16 17 17 15 15 15 15 16 15 15 14 16 14 15
16 16 16 15 16 15 15 15 15 16 16 16 17 16 16 16 14 14 14 15 16 16 16 15 15 14 14 14 14 15 17 18 18 17 17 17 16 17 17 17 18 18 15
15 16 16 16 16 16 15 15 15 16 16 16 17 17 17 16 16 15 15 15 16 17 17 17 16 15 15 15 16 16 17 17 17 17 17 17 17 17 17 17 19 19 20
16 17 17 16 17 16 16 16 16 16 16 17 18 18 17 17 16 16 16 16 16 17 18 17 16 15 15 16 16 16 16 16 17 18 18 18 18 17 20 21 21 19 18
15 16 17 17 17 17 18 18 17 17 18 19 19 19 19 17 17 16 16 17 17 18 17 17 16 17 16 17 17 17 17 17 18 19 19 18 18 18 18 18 19 19 20
15 16 17 17 18 17 17 17 18 18 19 19 19 20 19 18 17 17 17 17 17 17 17 17 18 18 18 19 19 18 18 18 18 18 19 19 19 20 20 20 21 22 21
14 14 16 17 18 17 17 17 17 17 17 18 19 18 18 18 16 15 16 17 17 17 17 18 18 19 20 21 21 21 20 20 20 19 20 22 21 20 19 18 18 19 20
14 15 15 15 17 18 18 18 15 16 15 16 16 17 17 15 15 14 15 15 15 16 18 19 20 20 20 20 20 21 20 20 20 19 19 19 19 19 18 18 18 20 21
14 14 15 15 15 15 17 18 19 17 15 15 15 15 15 14 14 15 15 15 15 16 19 20 20 21 21 21 21 21 21 19 18 19 20 20 19 18 19 19 20 19 19
14 14 15 14 15 15 16 16 17 20 21 19 16 16 15 15 15 14 15 16 19 18 19 19 20 19 19 19 20 20 21 21 20 20 21 20 21 20 20 20 20 23 20
15 14 14 17 17 16 18 17 17 19 21 22 21 20 18 16 16 16 17 19 20 20 20 21 21 20 20 21 21 22 22 22 23 23 24 23 25 23 23 22 22 24 22
16 16 15 16 16 18 18 18 19 21 22 23 23 23 21 20 22 22 22 22 21 21 21 22 22 22 22 22 24 24 23 24 24 23 25 24 24 24 25 24 24 25 22
17 19 17 18 19 17 18 18 18 21 25 25 26 25 22 22 23 24 23 23 23 22 22 23 24 24 23 23 23 24 25 26 25 25 25 24 24 26 23 23 24 22 21
17 16 17 19 19 18 18 18 20 20 20 23 24 21 21 22 23 23 24 26 27 24 23 24 25 24 23 24 26 28 29 30 27 28 28 26 23 25 24 22 24 27 24
17 18 17 18 16 19 22 20 20 21 23 23 23 23 24 25 25 24 23 24 25 26 27 27 28 26 25 25 27 27 29 31 28 32 32 29 25 27 29 27 25 26 25
17 18 16 21 21 21 21 26 25 22 20 22 24 26 26 25 27 29 30 28 26 31 29 29 28 28 27 31 30 29 28 32 31 31 33 32 28 25 28 27 26 28 28
19 18 19 19 21 19 21 21 23 23 25 24 24 24 22 22 22 27 30 30 29 30 25 29 29 29 27 29 29 29 30 31 32 32 31 31 29 25 25 26 27 25 26
19 20 19 19 21 23 21 21 22 24 23 23 23 23 23 24 27 24 27 29 30 26 25 25 27 27 27 26 27 29 31 30 32 31 33 29 28 30 29 28 27 27 24

GFSGL_con_lsi_111.txt.gz
Lid_Strength_Index
10 9 7 3 1 1 2 2 3 3 3 4 4 4 3 3 3 3 2 2 2 2 1 2 2 3 3 3 3 3 4 4 6 5 4 4 4 4 3 4 4 4 4
11 10 10 9 7 2 3 2 3 3 3 3 4 4 4 4 1 2 2 1 2 2 2 2 2 3 3 3 4 4 4 4 5 6 5 5 4 3 3 3 3 2 2
12 12 12 11 11 10 6 3 3 3 3 3 4 4 4 4 2 3 2 2 2 2 2 2 2 3 4 3 4 4 4 4 4 5 5 4 4 4 4 4 3 3 3
13 13 13 12 12 12 11 8 2 2 3 4 4 4 4 4 2 2 2 2 2 2 1 2 2 2 3 3 3 4 4 4 4 4 5 5 4 4 4 4 5 4 5
15 14 13 12 12 13 13 12 11 3 3 3 4 4 3 3 3 2 2 2 2 3 2 2 2 3 6 4 3 3 3 4 4 4 4 5 5 5 5 4 5 4 7
14 14 14 13 13 13 13 13 14 13 12 9 9 8 9 11 13 12 8 2 2 3 3 3 3 6 7 9 9 8 5 4 4 4 4 5 5 4 5 4 5 5 7
15 14 15 14 14 14 14 15 15 16 16 15 14 12 13 13 13 11 11 6 7 8 8 5 8 10 9 11 14 14 14 15 14 5 5 5 6 8 8 7 6 6 8
16 15 15 15 15 14 15 15 16 15 16 16 16 15 14 15 14 13 13 13 14 14 14 12 12 11 11 11 13 15 15 16 15 14 14 15 15 14 12 10 9 12 14
17 17 16 15 15 15 16 16 16 16 17 17 16 16 15 15 14 14 14 15 15 15 15 14 14 13 14 12 14 16 17 16 15 15 15 15 15 14 13 12 13 13 15
17 17 17 17 16 16 16 16 16 16 16 16 17 16 16 16 15 14 16 16 16 16 16 15 15 14 14 14 15 16 17 17 16 16 17 17 16 16 16 17 15 14 15
17 16 16 17 17 17 17 16 17 17 17 17 17 16 17 17 16 15 15 16 17 17 17 17 16 15 15 15 16 16 17 16 16 16 17 18 19 18 18 18 18 16 17
16 17 17 17 16 17 17 17 17 17 17 18 17 17 17 17 16 16 16 16 16 17 18 17 16 16 15 16 16 16 17 17 17 18 18 19 20 20 19 19 19 19 19
16 17 17 16 16 16 17 17 17 17 18 18 17 18 17 17 17 16 16 17 17 18 18 17 17 17 17 17 17 17 17 18 19 20 21 21 20 19 18 19 19 19 20
15 16 17 17 16 16 16 15 16 16 17 17 17 17 17 17 17 17 17 18 17 18 19 19 19 19 19 19 19 19 19 19 20 21 21 21 20 20 20 20 21 21 22
14 14 16 16 17 17 16 15 15 15 15 16 16 16 17 17 15 15 16 17 18 19 19 20 20 21 20 20 20 21 20 20 21 21 21 21 21 21 21 20 20 21 23
15 15 15 16 17 17 18 17 14 14 14 14 14 15 15 14 14 14 15 16 16 17 20 21 22 22 22 22 22 22 21 21 21 21 20 21 21 21 21 20 20 22 23
15 15 16 16 15 17 18 18 21 19 15 15 14 14 14 14 14 15 15 16 16 18 21 21 21 21 21 21 21 22 23 22 21 22 22 21 21 21 21 21 21 21 21
17 17 18 18 18 19 21 23 24 25 25 23 19 16 15 15 15 15 16 18 21 20 21 22 23 22 22 22 23 23 23 23 23 22 23 23 22 21 22 22 22 23 22
17 19 21 22 20 20 21 24 26 25 26 25 22 21 21 17 17 17 18 22 23 23 22 23 23 23 23 24 25 25 26 26 25 25 25 25 25 23 24 23 23 24 23
21 20 22 24 24 23 24 24 24 24 24 24 24 25 24 22 24 25 24 25 24 24 24 24 24 24 24 25 26 27 26 26 26 25 26 26 26 23 24 24 24 23 22
22 20 21 20 21 22 23 24 25 25 25 25 27 28 25 24 26 26 25 25 26 26 27 25 26 26 25 26 26 28 29 30 28 27 27 27 29 26 25 25 24 23 23
19 18 18 20 20 21 21 20 22 23 23 23 25 24 26 28 27 27 28 32 33 27 27 27 26 27 28 28 29 34 33 34 33 31 30 29 28 28 27 27 28 29 26
19 20 20 19 19 22 23 21 21 22 25 27 25 25 26 30 30 28 31 34 31 31 31 29 30 30 31 33 32 32 32 34 34 37 36 35 30 31 33 30 30 30 30
20 21 19 21 23 22 27 27 23 21 21 25 29 28 29 31 32 32 34 34 33 35 36 34 30 30 31 36 34 32 31 35 34 35 37 35 32 29 32 30 30 32 32
24 24 23 22 22 23 23 22 26 26 24 24 26 27 27 30 29 33 33 32 31 33 31 32 31 31 32 33 32 31 32 34 35 35 35 34 35 34 33 32 33 30 31
20 20 21 21 22 22 22 23 23 23 26 27 26 25 26 26 28 32 32 31 29 28 29 31 31 30 31 30 30 31 32 32 34 35 38 33 34 34 34 33 32 32 29

GFSGL_con_lsi_114.txt.gz
Lid_Strength_Index
11 10 9 8 7 4 3 1 2 2 3 3 3 3 2 3 2 2 2 3 3 2 1 1 2 1 2 3 3 3 4 4 6 5 4 4 4 3 3 3 3 3 3
11 11 10 10 9 9 8 8 2 3 2 2 3 3 3 3 3 3 3 3 2 3 2 2 2 2 3 3 3 4 4 4 5 6 5 5 4 3 3 4 3 3 3
12 12 12 12 11 11 11 11 9 3 3 3 3 3 3 3 4 4 4 3 1 2 1 2 2 2 3 3 3 4 4 4 4 5 5 4 4 3 3 3 3 4 8
13 13 13 13 13 12 12 12 12 11 6 3 3 3 3 3 4 4 4 3 2 2 1 1 1 2 2 3 3 3 3 4 4 5 5 5 4 4 4 5 5 5 9
14 14 14 13 13 13 13 12 12 13 13 11 5 3 3 4 5 4 3 3 3 2 1 1 1 2 5 4 3 3 3 4 4 5 5 5 5 6 5 4 4 5 8
14 14 14 14 14 14 14 14 13 13 13 13 13 13 13 12 14 13 6 3 2 2 3 2 2 6 7 9 9 8 5 4 4 4 4 5 5 4 4 4 4 6 8
15 15 14 14 14 14 14 14 14 14 13 14 14 14 14 15 15 13 13 5 5 7 7 5 6 8 8 10 13 13 14 14 14 4 4 4 4 4 5 6 6 6 8
17 16 16 15 15 14 15 15 15 15 15 15 15 15 15 16 15 15 15 13 13 14 13 12 10 10 10 11 12 14 15 15 15 14 13 15 15 13 9 8 8 14 14
18 17 17 17 16 16 16 16 16 16 16 16 16 16 16 17 15 15 15 15 16 15 15 13 13 12 13 11 13 15 16 17 15 15 15 16 15 15 13 11 13 12 15
18 17 17 16 17 17 17 16 16 15 16 17 17 17 16 17 16 16 15 16 17 16 16 15 15 15 14 14 14 15 17 17 16 17 17 17 17 17 17 16 14 14 15
17 17 17 17 16 16 17 16 16 16 16 16 17 17 17 16 16 16 16 17 16 17 17 17 16 15 15 15 15 16 17 16 17 18 18 18 18 18 18 18 18 15 14
16 17 17 16 16 16 17 17 16 16 17 17 17 17 17 17 16 16 16 17 17 18 19 18 17 16 16 16 16 16 16 17 17 18 20 20 20 20 20 20 19 19 19
16 17 17 16 16 16 16 16 16 17 16 16 17 17 18 17 17 16 16 17 18 19 19 18 18 18 18 18 18 18 18 18 19 20 20 20 20 19 19 19 19 19 19
15 16 17 17 17 16 15 15 15 15 16 16 16 17 17 16 17 17 17 18 18 19 19 19 19 19 20 20 20 19 19 20 20 21 21 20 19 20 20 19 20 20 21
15 15 15 16 17 18 17 16 16 15 14 15 16 16 16 16 15 15 15 17 18 18 19 20 20 21 21 21 21 21 21 20 20 20 20 20 20 20 21 20 20 21 22
15 15 16 16 17 17 18 19 15 15 14 14 14 15 15 14 14 14 15 15 16 17 19 20 21 21 22 22 23 22 22 22 21 20 20 21 21 21 21 21 21 21 22
16 16 16 17 17 18 19 20 22 20 16 16 15 15 15 15 14 15 15 16 16 18 21 22 22 22 21 22 22 22 23 23 21 22 21 21 21 21 21 21 21 21 21
20 20 20 20 22 23 25 26 26 26 27 24 20 18 16 16 16 16 16 18 21 20 21 22 22 22 23 23 23 23 24 23 23 22 22 22 21 21 21 22 21 21 21
18 21 25 25 24 24 26 27 27 26 25 25 24 22 22 18 17 18 19 23 23 23 22 22 22 23 23 24 25 25 25 26 25 25 25 24 24 22 23 22 23 23 23
22 22 23 25 25 24 25 25 24 24 24 25 25 26 25 23 25 26 25 26 25 24 24 23 24 24 25 25 26 27 26 26 26 25 25 25 24 23 23 23 23 23 23
22 21 22 22 22 23 24 25 26 26 27 26 28 29 27 25 27 27 26 27 27 26 26 25 26 27 25 26 26 28 29 30 27 27 26 26 27 24 23 23 22 22 22
20 20 19 21 20 22 22 21 23 24 24 25 27 25 27 29 27 27 28 31 32 27 26 27 27 27 28 28 28 31 31 32 30 29 28 27 25 25 24 24 24 24 23
20 20 20 20 21 23 24 20 21 23 26 28 27 26 28 31 31 28 30 34 30 30 29 29 29 29 30 32 30 29 30 31 31 33 31 29 26 26 27 25 25 25 25
21 22 20 22 23 22 26 26 22 21 23 26 29 29 29 31 33 32 32 33 30 32 33 32 28 28 29 32 30 29 29 32 31 32 33 30 27 27 26 26 26 28 27
23 25 24 23 25 26 25 22 23 24 24 23 24 26 24 27 27 31 32 31 28 29 28 29 29 29 30 31 30 29 31 32 33 34 31 30 30 29 28 27 28 26 27
20 21 22 22 22 25 27 27 25 23 23 24 24 24 23 23 24 28 28 29 28 27 28 29 28 29 29 29 29 30 32 32 32 35 32 28 28 28 28 28 28 26 26

GFSGL_con_lsi_120.txt.gz
Lid_Strength_Index
11 11 11 10 9 9 9 9 8 6 5 1 1 1 1 1 1 1 1 1 1 1 1 1 1 1 1 1 1 1 2 2 4 3 2 1 2 2 2 2 1 1 1
12 11 12 11 11 11 10 9 9 7 6 4 1 1 1 1 1 2 2 1 2 2 2 2 2 1 2 1 1 2 2 1 3 4 3 3 3 2 2 3 2 1 0
12 12 12 12 12 11 11 10 10 9 8 8 8 6 2 1 1 1 1 2 2 2 2 2 2 2 2 2 1 2 1 1 2 3 4 3 3 3 3 3 3 2 5
12 12 13 13 12 12 12 12 11 11 10 10 11 11 11 11 11 11 8 2 1 2 1 1 1 2 2 1 2 1 1 2 2 3 4 4 4 3 3 4 4 6 7
13 13 12 13 13 12 12 12 12 13 12 12 12 13 13 12 13 13 12 9 4 2 2 2 2 3 6 4 1 1 2 2 3 4 4 4 5 5 5 4 4 6 7
13 14 13 12 12 13 13 12 13 13 13 13 13 14 14 14 15 14 13 8 9 6 3 2 2 5 5 10 10 9 5 2 3 4 4 5 4 4 4 4 5 8 10
14 13 13 13 13 13 13 13 14 14 14 14 14 14 14 15 15 14 14 12 13 13 13 11 10 6 8 4 12 14 14 14 13 3 3 3 3 3 3 4 4 6 6
15 15 14 13 13 13 13 13 13 14 14 15 15 14 14 15 15 14 14 13 14 15 15 14 13 13 13 11 9 12 15 15 14 14 12 13 12 9 3 3 4 8 13
15 15 15 14 13 13 14 14 13 13 13 14 14 15 15 15 14 14 14 13 14 15 15 15 14 15 14 13 13 16 17 17 15 15 15 15 15 15 14 7 11 11 15
14 14 14 13 14 13 13 13 12 12 13 13 14 14 15 15 15 15 15 16 17 17 17 16 16 16 16 15 15 15 17 18 16 16 17 17 17 17 17 16 14 8 15
13 12 13 13 13 13 12 12 12 12 12 12 13 13 14 15 15 15 16 15 15 17 18 18 17 16 16 16 16 17 18 18 18 18 18 18 18 18 18 18 17 15 15
12 13 13 12 12 12 12 12 12 12 12 13 13 12 12 13 14 15 15 16 15 15 16 16 17 17 17 17 18 17 18 18 18 19 19 20 20 19 19 18 18 18 17
11 11 12 12 12 12 12 12 12 12 12 13 13 13 13 12 12 13 13 14 15 15 16 16 17 17 17 17 17 18 18 18 19 20 21 21 20 19 18 18 18 17 18
12 12 12 12 12 12 12 12 13 14 14 14 14 14 14 13 13 13 12 12 13 13 13 14 15 16 16 17 16 16 17 16 18 19 18 18 18 18 19 18 19 19 19
12 12 12 12 12 12 12 13 14 14 15 15 15 15 15 15 15 14 14 14 13 14 12 12 13 14 15 15 16 16 16 16 17 17 17 18 18 18 18 17 18 18 19
13 13 12 12 12 13 13 12 15 15 16 16 16 15 15 15 15 15 15 15 15 14 13 14 14 14 14 15 15 16 16 16 16 16 17 18 18 18 19 18 18 18 19
13 13 12 12 12 13 13 13 14 13 14 15 16 16 15 16 15 15 15 15 15 13 13 14 14 14 14 15 14 14 15 15 15 16 16 16 17 18 18 19 19 19 19
13 13 13 12 12 13 13 13 13 14 14 14 14 15 16 16 15 15 15 13 13 14 14 15 15 15 15 15 15 15 15 15 15 15 15 15 15 16 17 18 17 18 19
14 13 14 13 13 13 13 13 13 14 14 14 14 15 15 16 16 16 15 14 15 15 14 15 15 15 15 15 15 15 15 15 15 15 15 15 15 15 16 16 17 18 18
14 14 14 13 13 13 13 13 14 14 14 14 15 16 16 15 15 16 15 16 16 16 16 16 16 16 16 15 15 15 14 15 15 14 14 14 14 14 15 16 16 16 17
13 13 14 13 13 13 14 14 14 14 15 15 15 17 19 16 16 16 17 17 17 17 17 17 17 17 17 17 16 16 16 16 16 15 15 15 14 15 15 15 15 16 16
14 14 14 14 14 14 14 14 14 14 15 15 15 16 19 16 16 17 17 17 17 17 17 17 17 18 18 18 18 17 18 18 17 17 16 16 15 15 15 15 16 16 16
14 14 14 14 14 15 14 14 13 13 13 14 14 14 15 15 15 15 16 16 16 16 17 17 17 18 18 18 18 19 19 20 19 19 17 16 16 15 15 16 16 16 17
14 14 14 14 13 13 13 13 12 13 12 12 12 12 13 13 13 14 14 14 15 15 15 16 17 19 18 18 18 18 19 21 19 18 19 17 16 16 16 16 17 18 17
13 13 13 13 13 12 12 12 12 12 12 11 11 11 12 12 12 13 13 13 14 14 16 15 15 17 18 19 19 20 21 22 21 21 17 17 18 18 18 17 17 17 18
12 12 12 11 12 12 12 12 12 12 12 11 11 12 12 12 12 12 13 13 14 14 15 14 15 18 19 18 17 20 20 21 20 21 18 15 16 16 15 17 20 16 18

GFSGL_con_lsi_126.txt.gz
Lid_Strength_Index
10 11 12 12 11 11 11 10 10 9 9 9 9 9 9 6 4 2 1 1 2 2 1 2 2 1 2 1 1 2 2 3 4 3 2 2 1 2 1 1 0 0 1
11 12 12 13 12 12 13 12 12 11 11 12 11 11 11 12 11 10 9 4 2 2 2 2 2 2 2 1 2 2 2 2 3 4 3 3 3 2 1 1 1 -0 -0
11 12 13 14 13 14 13 13 13 13 13 13 12 12 13 13 13 12 11 10 7 6 2 2 2 2 2 2 2 2 2 2 2 3 3 2 3 2 2 1 1 1 1
12 13 13 13 14 13 14 14 14 13 14 13 13 13 14 13 13 13 10 10 9 9 8 8 7 6 3 2 2 2 2 2 2 3 3 3 3 2 3 3 3 2 5
13 13 13 14 13 14 14 14 14 14 14 14 14 14 14 15 14 13 12 13 13 13 12 12 11 11 12 13 10 5 2 3 3 3 4 4 4 4 4 3 3 4 7
13 13 13 13 13 13 14 14 14 14 15 14 15 15 15 15 14 14 13 13 13 14 14 14 12 13 13 14 13 13 14 7 3 4 4 4 4 3 4 4 4 8 9
14 14 13 13 13 13 13 13 14 15 15 15 15 15 16 15 15 14 14 14 15 15 15 15 15 14 15 14 12 13 15 15 16 12 6 4 4 4 3 4 4 6 6
15 14 14 14 14 13 13 13 13 13 14 14 14 14 15 15 14 14 13 14 15 15 16 16 16 15 15 14 12 14 16 16 16 15 16 16 17 16 14 7 4 6 11
14 15 14 14 14 14 14 14 13 14 13 14 14 15 15 15 14 14 14 14 15 15 15 15 15 16 15 14 15 14 15 16 15 15 15 15 16 16 16 13 11 10 15
12 13 13 13 13 14 13 13 13 13 13 12 13 13 13 14 14 14 15 15 15 15 15 15 15 15 15 15 16 17 17 17 17 17 16 16 16 16 16 17 16 14 15
11 12 12 12 13 13 13 13 14 13 13 14 13 13 14 14 14 14 13 14 14 14 15 15 15 15 15 15 15 16 17 17 18 18 18 18 17 17 17 17 17 17 16
11 11 12 12 11 12 13 14 14 14 15 15 15 15 14 14 14 14 14 13 13 13 14 13 13 13 13 14 15 15 15 16 17 18 18 18 18 18 18 17 17 17 17
12 12 12 12 12 12 13 14 16 16 16 17 17 17 16 16 16 15 14 14 13 14 13 12 12 12 12 14 13 14 16 16 17 18 18 18 17 17 16 17 17 17 18
13 13 13 13 13 13 13 14 16 17 17 18 18 18 18 18 18 16 16 15 14 14 13 12 13 13 13 13 14 14 14 14 15 16 17 16 16 17 18 17 18 18 19
13 13 13 13 13 14 14 15 15 17 17 18 19 19 19 19 18 15 15 15 15 14 12 13 14 14 15 14 14 15 15 15 15 14 15 16 16 17 18 17 17 18 20
14 14 14 13 13 13 14 14 14 15 14 14 14 16 16 15 14 14 14 13 12 12 13 14 15 15 15 16 16 15 16 16 16 15 15 15 15 16 16 16 16 18 19
15 13 14 13 13 14 14 14 15 13 13 14 14 14 14 15 14 14 14 13 12 13 16 16 16 16 16 16 16 16 17 16 15 15 16 16 15 15 15 16 16 16 17
14 14 14 14 14 14 14 14 14 15 15 15 13 15 14 15 14 14 14 15 17 16 17 17 18 17 17 16 17 16 15 16 16 15 15 16 16 17 17 17 17 17 17
14 14 15 14 14 14 14 14 15 15 15 15 15 15 16 15 13 14 14 17 18 18 18 17 18 18 18 18 17 17 16 17 16 15 15 15 16 17 19 18 19 19 18
14 15 16 15 15 15 15 15 15 15 15 15 15 16 17 17 17 17 17 19 19 18 18 18 18 19 19 19 18 18 18 18 18 17 17 18 16 16 18 19 19 20 18
15 14 17 15 15 15 15 16 15 15 15 15 15 18 20 18 17 18 17 19 19 19 19 18 19 19 20 20 20 20 19 19 20 20 19 17 17 19 16 17 18 18 18
15 15 15 15 15 15 15 15 15 15 15 15 14 13 13 15 14 16 15 16 17 17 18 19 18 19 20 19 20 21 21 22 21 21 21 19 17 17 16 19 18 18 18
16 15 15 15 15 16 15 15 15 14 13 13 13 12 11 11 13 14 14 15 16 17 15 17 19 21 20 18 18 20 23 24 23 21 22 20 18 18 18 19 19 20 21
15 15 15 15 15 15 15 14 13 14 13 13 12 12 12 12 12 12 13 13 16 17 16 18 17 18 20 22 20 19 21 23 22 22 23 21 18 18 18 18 19 21 21
15 15 14 14 14 14 13 12 12 12 12 12 12 12 12 12 12 13 13 13 15 17 17 17 16 18 19 19 22 22 23 23 24 23 20 19 18 17 19 19 21 18 21
15 14 14 13 13 12 12 12 12 12 12 12 13 13 12 11 12 12 12 13 14 15 17 15 14 17 19 17 19 22 23 23 23 22 20 16 18 18 18 17 18 17 18

GFSGL_con_lsi_129.txt.gz
Lid_Strength_Index
12 10 8 9 9 9 10 11 10 9 10 11 11 11 11 10 9 7 5 3 2 2 1 2 2 1 2 1 3 3 2 3 4 3 2 2 2 2 2 2 2 2 2
14 13 10 10 11 12 13 12 12 12 12 12 12 13 13 12 11 10 9 8 7 7 4 2 2 2 2 3 3 3 2 2 3 4 3 3 3 2 1 2 2 1 1
14 14 12 12 13 13 14 14 14 13 14 14 15 14 14 14 12 10 10 10 10 10 10 9 10 10 10 8 4 2 2 2 2 3 3 2 2 3 3 2 2 2 1
14 13 13 14 13 14 14 14 16 15 16 16 16 15 15 15 14 12 12 12 13 13 12 11 12 13 13 12 10 9 5 2 2 3 3 3 3 4 2 3 3 2 2
13 13 13 13 13 13 14 14 14 14 15 16 16 16 16 15 15 15 14 14 15 15 14 13 13 14 14 14 12 12 11 8 3 3 4 3 3 4 3 3 3 4 4
15 14 14 13 13 14 14 15 15 15 15 15 16 16 16 16 14 15 14 15 16 16 16 15 14 15 15 14 13 15 15 14 11 10 5 4 3 4 4 4 4 5 7
15 14 14 13 14 14 14 14 15 15 15 16 16 17 16 16 15 14 14 15 16 16 16 16 15 15 15 14 13 13 14 15 16 14 13 15 14 15 14 6 4 4 4
15 14 14 14 15 14 14 14 14 14 15 16 17 17 17 16 15 15 15 15 16 16 16 16 16 16 15 15 14 14 15 15 15 15 15 16 16 16 15 14 12 11 9
14 14 14 15 16 16 16 15 15 14 14 15 16 16 17 16 14 14 14 15 15 15 15 15 15 15 15 14 16 16 16 16 15 14 15 16 15 16 16 13 13 12 13
14 14 14 13 14 16 16 15 14 15 15 15 14 16 15 16 14 14 14 15 15 15 15 15 14 15 14 15 16 16 17 17 17 16 16 16 16 16 16 16 17 15 15
13 13 13 14 14 15 16 16 16 15 16 16 16 16 17 16 16 14 14 15 15 14 14 14 14 13 13 14 14 15 16 17 18 18 17 16 16 15 16 16 17 17 17
13 13 13 13 13 14 16 16 16 17 18 18 18 18 18 18 15 15 13 13 13 14 14 13 13 12 13 13 14 14 14 17 18 18 18 18 17 17 16 16 16 17 17
13 14 14 14 14 14 15 16 17 18 19 19 19 20 20 19 18 16 15 14 14 15 13 12 12 12 13 14 14 14 15 15 16 16 17 17 17 17 16 16 17 17 17
15 15 14 15 15 15 15 16 17 19 19 18 19 22 22 19 18 17 16 16 15 15 13 14 15 14 17 17 17 16 17 16 16 16 17 19 18 17 17 16 19 19 19
15 15 15 15 15 16 16 17 17 18 17 19 22 22 23 20 17 15 15 14 15 14 14 17 17 17 18 18 17 17 17 17 17 18 17 18 20 19 18 18 17 19 18
16 16 16 16 16 16 16 16 14 16 14 14 14 19 21 15 14 14 15 14 14 14 18 20 21 20 18 19 19 19 19 18 16 16 18 17 17 17 18 17 17 18 18
17 16 16 16 15 15 16 16 18 16 13 13 14 14 15 15 14 14 15 16 15 17 19 21 25 23 20 18 18 18 17 18 16 16 17 17 16 16 17 17 17 17 17
19 17 18 18 19 19 19 19 21 22 23 21 17 16 15 15 15 15 16 17 20 19 20 19 20 21 20 19 19 18 18 18 17 16 17 17 17 17 18 18 18 20 18
17 19 22 21 21 22 20 21 23 23 23 24 23 21 21 16 15 15 16 23 24 21 20 20 19 20 21 20 21 20 19 20 20 20 18 18 17 18 21 20 19 22 20
19 19 20 20 20 20 21 22 20 21 20 22 22 21 21 22 26 28 26 29 28 25 24 21 20 20 22 21 22 22 20 21 22 21 21 21 18 18 19 20 21 22 19
21 19 20 18 20 20 22 21 21 21 22 22 22 24 22 20 20 24 22 24 24 23 24 22 21 20 21 20 20 23 23 25 24 23 22 21 20 19 18 18 19 19 19
19 18 18 19 19 21 21 19 21 22 20 21 21 19 19 20 15 17 20 22 24 22 21 22 22 21 22 20 20 28 27 28 27 25 24 23 21 19 19 22 21 21 20
19 20 19 18 19 20 22 20 22 24 22 23 21 19 19 21 19 17 17 19 19 21 21 22 24 23 24 25 24 25 26 26 25 27 25 24 23 20 20 22 22 22 23
18 21 18 18 20 20 24 25 23 21 20 21 23 22 22 21 21 19 20 18 18 22 24 23 22 21 22 27 26 25 23 27 26 26 25 22 21 19 20 19 21 23 24
21 22 22 20 20 20 18 20 20 19 17 16 19 21 19 21 19 21 21 19 16 21 21 22 22 19 21 24 24 23 26 25 27 26 21 20 21 21 22 22 20 19 21
19 18 18 17 17 17 18 18 16 16 16 16 16 15 14 15 18 20 20 20 19 19 20 21 18 18 20 21 23 22 25 25 26 24 24 21 23 22 20 23 20 19 19

GFSGL_con_lsi_132.txt.gz
Lid_Strength_Index
13 13 11 10 9 8 8 9 9 9 8 9 10 10 10 9 6 3 3 2 2 2 1 2 2 1 2 2 2 2 3 5 6 4 3 2 2 1 1 1 1 1 1
14 13 11 12 12 10 10 10 10 12 11 10 11 12 12 11 11 10 9 8 8 8 8 8 9 6 3 4 2 2 3 3 4 4 3 2 2 1 1 1 1 1 1
14 14 13 13 14 12 12 12 12 12 13 13 13 13 14 13 12 12 12 10 11 11 12 12 12 11 12 11 9 8 5 3 3 3 3 2 2 3 3 2 2 1 1
14 14 14 14 15 14 13 13 14 14 15 15 15 15 16 15 15 15 15 15 14 14 13 14 14 14 14 13 10 11 10 8 5 3 3 3 3 3 2 2 3 2 2
14 14 15 14 14 14 14 15 15 15 15 15 15 15 16 16 17 16 16 16 16 15 15 14 15 14 14 13 13 13 12 11 9 7 5 3 3 3 3 2 3 2 2
15 15 14 14 14 15 15 15 15 15 16 16 16 16 16 15 16 16 17 17 17 17 17 17 16 16 15 14 14 15 15 15 14 12 10 10 10 13 12 11 4 4 5
15 15 16 15 15 15 15 14 16 17 17 17 18 17 17 16 16 16 16 17 17 17 17 17 17 16 16 15 14 15 16 15 17 15 14 15 14 15 14 13 10 10 5
14 15 15 17 16 16 16 16 16 16 18 19 18 18 18 17 16 16 15 16 16 16 16 16 16 16 16 16 16 16 17 17 15 15 15 15 15 15 15 14 14 13 11
14 14 14 15 16 17 18 18 17 18 18 20 19 19 19 17 15 15 16 15 15 16 15 15 16 16 15 14 16 16 18 18 15 14 14 14 14 14 15 15 16 15 14
14 14 15 15 16 17 17 17 17 17 18 18 19 20 18 18 15 15 16 16 16 16 15 15 14 15 14 15 16 16 17 17 19 19 18 17 15 14 15 16 16 17 16
13 13 14 14 15 16 16 17 18 18 19 19 19 19 19 17 16 13 14 16 16 15 15 15 14 13 14 14 15 16 16 19 20 20 20 18 18 16 16 15 16 17 18
14 14 14 15 14 15 16 17 17 18 19 19 19 19 18 18 15 15 14 14 14 15 15 15 14 13 13 14 15 15 15 17 18 16 17 17 17 17 16 17 20 20 18
15 15 15 15 15 15 17 17 18 19 19 19 19 20 20 18 17 15 14 14 14 16 15 15 15 15 16 17 15 16 18 17 16 16 17 18 21 19 19 16 20 20 19
16 15 15 16 16 15 16 16 18 19 19 19 20 21 22 19 18 17 17 16 15 16 17 18 19 17 20 20 19 19 19 20 22 22 20 22 21 21 21 21 22 20 22
16 16 16 16 16 16 16 17 16 17 17 19 22 23 23 20 17 15 16 16 17 17 20 20 21 21 20 20 20 19 19 19 18 19 22 20 21 21 20 20 20 21 20
17 17 17 17 16 16 17 17 15 15 14 14 14 16 20 15 14 15 16 16 16 17 20 22 24 23 22 21 21 20 19 19 18 17 18 18 18 19 18 18 18 21 21
17 17 17 17 17 18 18 19 20 18 15 14 14 15 15 15 15 15 16 17 17 19 22 22 25 24 23 22 21 21 21 20 19 19 19 18 18 17 17 17 17 17 18
20 19 20 21 23 23 25 25 25 26 26 24 18 16 16 15 16 16 17 19 24 22 22 23 22 23 23 22 22 22 21 22 22 21 21 21 20 18 19 19 19 21 18
18 21 25 23 25 25 24 24 26 25 25 26 25 21 22 17 16 17 18 27 27 25 23 23 23 23 24 23 26 25 25 24 24 24 22 22 22 20 19 20 21 22 21
22 21 23 24 25 24 25 25 24 24 24 25 25 26 24 23 24 26 30 33 31 28 27 24 23 23 24 22 25 28 25 25 25 25 24 23 23 20 19 19 21 22 20
24 21 22 20 22 22 24 24 24 25 26 26 27 28 26 25 25 23 22 26 28 26 27 24 24 26 24 24 22 27 27 33 26 25 24 22 22 21 19 19 21 20 19
20 19 19 20 19 21 22 21 23 23 23 23 24 22 24 26 25 23 23 21 24 21 21 23 23 23 23 22 24 31 30 32 30 26 25 22 21 20 18 19 23 24 21
19 20 20 19 20 21 23 22 22 23 23 22 21 21 22 23 24 22 22 24 22 21 23 24 26 24 25 26 27 26 27 27 26 29 29 24 21 20 19 18 21 23 24
20 21 20 20 20 20 21 24 24 23 23 24 24 23 21 19 18 19 21 24 22 25 28 26 23 22 22 27 28 27 24 27 28 26 24 23 21 20 20 19 19 22 23
23 23 23 21 22 24 24 23 22 21 21 19 19 19 18 20 19 16 17 19 19 23 21 23 23 21 21 22 25 24 26 25 28 27 24 21 23 22 21 23 23 20 21
22 24 24 24 24 23 22 23 23 22 21 20 20 20 20 17 17 17 17 15 16 18 21 23 22 20 20 23 22 23 25 25 27 24 29 24 26 25 24 24 23 21 20

GFSGL_con_lsi_135.txt.gz
Lid_Strength_Index
13 13 13 13 12 11 9 11 10 8 8 7 7 8 8 8 8 2 2 2 2 2 2 2 2 2 2 2 2 2 2 2 5 4 4 4 3 2 2 1 1 1 1
14 14 13 14 13 13 11 12 11 10 9 9 9 10 10 11 12 12 10 9 9 10 9 7 9 6 4 5 2 2 2 2 3 4 5 4 4 2 1 1 1 1 1
14 14 14 14 14 14 14 12 12 12 12 12 12 12 12 12 12 13 14 13 13 12 13 13 13 12 12 10 8 7 6 3 3 3 4 3 3 3 3 2 2 1 1
15 15 15 15 14 14 14 14 14 14 13 13 13 13 13 13 13 13 14 15 15 14 15 16 15 13 14 12 12 12 10 8 6 5 4 3 3 3 3 3 3 2 2
16 16 16 15 15 14 14 16 16 16 15 15 15 14 14 15 15 14 15 15 16 16 16 16 17 14 15 15 15 15 15 11 9 8 7 5 6 7 8 10 5 3 2
16 17 17 17 16 17 16 17 18 18 18 16 16 16 15 15 14 15 16 16 16 17 17 17 16 16 16 16 15 16 16 17 15 13 12 12 13 14 14 13 12 8 6
16 16 17 17 18 18 18 18 19 19 19 19 18 16 16 16 14 14 15 17 16 17 18 17 17 17 16 16 16 16 17 16 17 16 16 17 17 16 16 15 13 12 10
15 16 16 16 17 18 18 19 19 20 20 19 19 18 17 16 16 15 15 16 16 16 16 17 17 17 17 17 17 17 18 18 17 16 17 17 17 16 16 15 15 14 12
16 15 15 15 16 16 17 18 18 18 19 19 19 19 18 17 16 17 17 17 17 17 16 16 17 17 16 16 17 17 18 19 17 16 16 15 15 14 15 16 16 15 14
14 14 14 15 16 16 16 17 17 17 18 18 18 18 17 17 15 15 16 16 17 17 17 16 15 16 16 16 17 17 19 19 20 19 18 17 17 16 15 16 17 17 16
14 14 14 15 15 16 17 16 17 18 18 18 18 18 18 16 15 14 14 16 16 16 16 16 16 15 15 15 15 16 17 16 17 17 17 17 17 17 17 16 16 17 18
14 15 15 15 15 15 17 17 17 18 19 19 19 18 18 18 15 15 15 15 16 17 18 17 17 16 16 16 16 16 16 17 16 16 17 18 19 19 19 18 20 17 16
15 15 15 15 15 15 16 17 18 18 18 19 19 20 19 17 18 16 16 16 17 20 19 18 17 17 18 19 17 17 19 20 20 20 21 20 22 20 20 20 20 21 21
15 15 15 16 16 16 15 15 16 16 18 18 20 20 19 18 18 18 18 18 18 20 21 22 22 19 21 21 21 20 20 21 22 22 22 23 23 21 22 24 23 22 24
15 15 16 16 16 17 17 17 16 16 15 17 19 19 19 19 18 17 17 19 19 19 23 22 23 23 23 23 22 22 21 21 21 20 20 20 20 19 20 21 22 23 24
16 16 16 17 17 18 18 18 15 15 14 14 15 16 18 15 15 15 16 16 17 18 22 24 26 26 25 24 24 24 23 23 23 21 21 21 20 20 19 18 18 20 20
17 16 17 17 18 19 19 20 22 19 16 15 15 15 15 15 15 16 16 17 18 20 24 26 29 27 25 24 24 24 24 23 23 23 23 23 22 21 20 20 20 20 19
20 21 23 23 25 24 27 27 28 28 28 26 19 17 16 16 16 16 17 19 25 23 24 26 27 26 25 24 25 26 26 26 26 26 25 25 24 23 21 21 21 23 21
18 22 26 26 27 27 27 27 28 27 27 28 25 22 22 17 17 17 18 28 28 26 24 24 27 26 26 26 29 31 33 31 30 31 28 27 26 24 23 21 22 23 23
22 21 23 25 26 26 26 26 25 25 26 27 27 27 25 23 27 30 30 34 31 27 27 25 25 26 28 27 31 35 31 32 28 27 27 27 24 23 22 20 21 22 20
23 21 22 20 22 22 23 23 23 25 26 26 26 28 27 25 26 27 27 29 28 26 28 26 26 27 26 26 23 28 29 35 28 27 27 25 24 23 20 18 19 19 18
20 20 20 20 20 22 21 20 22 23 23 24 24 23 24 27 25 23 24 25 26 25 24 24 23 23 24 23 25 32 31 32 30 28 28 26 23 21 19 19 20 23 20
20 22 21 20 21 22 23 23 23 24 24 25 24 23 24 25 25 24 22 22 24 23 23 24 26 24 25 27 29 27 29 26 25 30 27 25 23 21 20 20 18 22 24
22 24 21 24 26 24 27 28 27 26 25 26 27 25 25 24 23 22 20 19 19 20 25 27 24 22 22 26 29 28 24 26 27 26 25 24 22 20 21 21 20 21 23
26 28 28 27 29 31 32 30 30 29 28 26 28 26 24 23 21 21 21 21 20 19 17 18 22 22 22 22 23 23 25 26 28 27 25 24 22 23 23 23 26 21 24
25 26 27 28 30 32 33 35 33 32 29 30 29 29 27 23 22 23 23 22 22 20 18 15 18 21 21 20 22 22 25 26 27 25 27 26 28 25 26 25 23 23 21

GFSGL_con_lsi_141.txt.gz
Lid_Strength_Index
14 14 13 14 14 14 15 14 14 12 12 11 9 10 9 8 8 4 1 1 1 1 2 1 2 2 3 2 2 2 2 2 4 3 1 0 1 0 0 -0 -1 -1 0
14 15 14 15 15 15 16 15 14 13 12 12 11 11 11 10 10 9 9 8 8 8 8 8 7 5 6 8 6 2 2 2 3 4 2 2 1 0 0 0 0 -1 -1
14 15 15 16 16 17 16 16 15 14 13 13 12 12 13 12 12 11 11 11 11 10 10 10 11 10 11 11 12 10 8 5 2 3 3 2 2 1 1 1 0 -0 -1
14 15 16 16 16 17 17 17 16 15 15 14 14 14 13 13 13 13 13 12 12 12 12 12 12 12 12 12 14 13 11 9 7 5 3 3 4 6 6 7 3 3 1
14 14 15 15 16 17 17 16 16 16 16 15 15 15 15 15 14 15 15 15 16 15 14 14 13 13 13 14 15 15 14 13 12 11 11 10 13 13 13 13 10 10 7
14 15 14 15 15 15 17 17 16 16 17 16 15 15 15 16 14 15 15 16 17 17 18 17 16 15 15 15 15 15 17 16 16 15 15 15 16 16 15 13 12 12 9
14 15 15 15 15 15 15 16 16 18 17 17 16 16 16 16 14 15 16 17 18 17 18 18 17 17 17 16 16 16 16 16 17 17 18 18 18 18 17 15 14 14 14
15 14 15 15 16 16 15 15 15 15 16 18 18 16 16 16 16 16 16 17 18 18 18 18 18 17 17 16 16 17 16 17 17 17 18 18 18 17 18 17 17 16 15
15 15 14 15 15 15 16 16 15 15 15 16 17 17 17 16 16 17 17 18 18 19 19 18 18 18 18 17 18 18 18 18 16 17 17 17 17 17 17 16 18 17 16
15 14 14 14 15 15 15 15 15 15 15 14 15 16 16 16 15 16 17 16 18 18 18 18 17 17 18 19 19 20 21 20 19 19 19 18 18 18 18 18 17 18 18
13 14 14 13 14 14 14 14 15 15 15 15 15 16 16 16 17 16 16 18 18 18 17 18 17 17 17 18 18 19 19 19 19 19 19 18 18 18 18 18 17 17 18
13 14 15 14 13 13 13 14 14 15 16 16 16 16 16 16 16 16 16 18 18 19 19 18 18 18 18 18 19 19 19 18 18 18 18 19 18 18 17 17 17 17 16
14 15 15 15 14 13 14 14 15 15 16 16 17 17 16 16 16 17 17 18 19 19 19 19 19 19 19 20 19 20 21 20 20 20 20 20 18 17 16 16 15 15 14
15 15 15 15 14 14 14 14 15 15 16 17 17 17 17 16 16 16 16 17 18 19 20 20 21 20 21 21 21 20 21 21 21 21 21 19 18 18 17 17 17 16 15
15 15 15 15 15 15 15 15 15 15 15 16 17 17 17 16 16 16 16 17 18 19 20 20 21 21 21 22 22 22 22 22 22 21 20 20 19 18 18 16 16 16 16
15 15 15 15 15 16 16 16 15 15 15 16 16 16 15 15 15 16 16 17 18 19 19 21 21 21 21 22 22 22 22 23 23 22 22 21 20 20 19 18 17 17 17
15 15 15 15 16 16 16 17 18 17 17 16 16 16 15 16 16 16 16 17 18 18 19 20 21 21 21 21 21 22 23 23 22 22 22 23 22 21 20 19 18 18 18
15 16 15 15 16 16 17 17 17 18 18 17 16 16 16 16 16 16 16 17 18 18 18 19 20 20 20 21 21 22 22 22 23 23 23 24 24 23 22 21 20 20 20
14 15 15 15 16 16 16 16 16 17 17 18 17 17 18 18 17 17 17 18 19 18 18 18 18 19 19 20 21 22 22 23 24 24 24 24 25 24 23 22 21 22 21
15 16 16 15 16 16 17 17 18 18 18 19 19 20 19 19 19 19 18 19 19 19 18 18 18 18 19 19 20 21 21 22 22 23 24 24 24 24 24 23 22 22 21
14 15 17 16 17 18 18 18 19 19 19 20 20 21 23 21 21 21 21 21 21 21 21 20 19 18 18 18 19 19 20 20 21 21 21 21 22 22 21 20 20 20 19
16 16 17 18 18 19 19 19 20 20 21 22 22 21 24 22 22 22 22 22 22 22 21 22 21 20 19 18 18 17 18 18 18 19 20 20 20 19 19 19 19 18 17
17 18 18 20 20 21 21 21 22 22 23 23 24 24 23 23 23 23 24 24 23 23 23 23 22 21 19 18 17 16 17 17 18 19 20 19 19 18 18 18 18 18 17
18 19 20 20 22 22 23 24 24 25 25 25 25 25 25 24 24 24 25 24 24 23 23 23 22 21 19 18 16 15 16 16 16 17 20 19 19 18 18 18 18 17 17
20 20 21 22 23 24 24 25 25 26 25 26 26 26 26 25 24 25 25 25 24 24 23 22 21 20 20 20 17 16 16 18 19 21 17 18 18 18 18 18 18 17 16
20 22 22 22 24 24 25 26 26 26 27 27 27 26 26 26 25 25 25 24 24 24 23 22 21 21 21 18 15 16 18 20 18 20 18 17 18 18 18 18 18 17 16

GFSGL_con_lsi_144.txt.gz
Lid_Strength_Index
12 11 11 12 12 12 13 13 13 13 12 13 12 11 11 10 8 8 8 7 7 8 6 6 2 1 1 1 1 2 2 3 5 3 1 1 1 1 0 -0 -0 -1 1
12 12 12 12 13 13 14 13 13 14 13 12 13 12 12 12 11 11 11 11 11 11 11 10 10 6 4 2 2 2 2 2 3 4 2 2 1 1 1 1 0 -0 -0
12 12 13 13 14 14 14 14 14 14 14 13 12 13 13 12 12 13 13 13 14 13 13 12 13 12 10 9 6 6 4 2 3 3 3 2 1 1 1 1 1 0 -0
11 12 13 13 13 14 14 14 14 14 14 14 14 14 13 14 14 14 14 14 14 14 13 13 13 13 13 12 12 10 9 6 4 5 5 6 8 8 8 7 3 6 7
11 11 12 11 12 13 14 14 14 14 14 14 15 15 14 14 14 14 14 15 15 14 14 14 14 13 13 13 13 15 12 10 11 10 12 13 13 12 12 11 9 8 11
11 11 12 12 12 12 13 12 15 15 15 15 15 16 16 16 15 15 15 14 16 16 16 17 15 14 14 14 15 15 16 16 15 14 15 16 17 16 14 14 13 11 8
11 11 12 12 12 12 12 12 12 13 15 15 15 14 16 16 16 16 16 15 16 16 17 17 17 16 15 14 16 16 16 16 17 17 18 19 18 17 16 16 15 14 14
11 12 12 12 12 12 12 13 12 12 13 15 16 16 16 16 17 16 16 16 17 17 17 17 17 17 17 16 16 17 17 17 17 17 17 18 18 18 17 16 16 16 14
12 12 12 13 12 12 13 12 13 12 12 13 14 16 16 16 16 16 16 16 18 18 18 17 18 19 18 17 18 17 17 18 16 16 16 16 16 16 16 15 17 16 16
12 12 12 12 13 13 12 12 12 12 12 12 13 14 15 16 16 15 15 15 16 17 17 18 18 18 19 19 19 19 20 19 19 17 16 16 16 16 17 16 16 17 16
11 12 12 12 12 11 11 11 12 12 12 12 13 13 14 14 15 16 17 16 15 16 17 17 17 17 17 18 19 19 20 18 18 17 17 17 17 17 16 16 16 17 17
12 12 13 12 12 12 11 11 11 12 13 13 13 12 13 13 15 15 16 17 17 17 18 17 17 17 18 18 19 18 18 17 17 17 17 17 17 17 15 15 15 16 15
12 13 13 13 13 12 12 12 12 12 13 13 13 13 13 13 14 15 16 16 17 17 17 17 17 17 17 18 18 18 19 18 18 18 18 18 17 16 14 13 12 13 13
13 13 13 14 14 13 13 13 13 13 13 14 14 14 14 14 15 15 15 15 17 16 17 16 17 17 18 18 18 18 18 19 19 19 18 18 16 16 16 15 15 13 14
13 13 13 13 14 13 14 14 14 13 14 14 14 14 15 16 16 15 16 16 16 17 16 16 17 17 18 18 18 18 18 19 19 19 19 19 18 17 17 15 15 15 16
13 13 13 13 13 13 13 13 14 15 15 15 15 15 14 16 16 16 16 16 17 16 15 16 17 18 18 19 19 19 19 20 20 19 19 19 19 19 18 16 15 15 15
14 14 13 13 13 13 13 14 14 13 15 15 15 16 16 16 16 16 16 16 16 15 16 16 17 17 18 18 19 19 19 19 19 19 19 19 20 19 19 18 17 17 17
13 15 13 13 13 13 13 13 13 14 14 14 15 16 16 16 16 16 16 15 15 15 16 16 16 17 17 18 18 19 19 19 19 19 19 19 20 19 19 19 18 18 18
12 12 12 12 13 13 13 13 13 14 15 15 15 16 17 17 16 16 16 16 17 17 17 17 16 16 17 17 17 18 18 19 19 19 19 20 20 20 20 20 19 20 20
12 14 14 13 13 13 13 14 15 16 16 16 16 17 18 17 17 17 17 17 18 18 18 18 18 17 17 16 17 17 18 18 19 19 20 20 20 20 20 21 20 20 20
11 12 15 13 14 14 14 15 16 17 17 17 17 18 22 19 18 18 18 19 19 19 19 19 19 18 18 17 17 17 18 18 19 19 19 20 20 21 20 20 20 20 20
12 13 14 15 15 16 17 17 17 17 18 18 19 19 21 19 19 19 19 20 20 19 19 20 20 19 19 19 18 18 18 18 18 18 19 19 19 18 18 18 18 18 18
14 14 15 16 16 18 17 17 18 18 19 19 20 20 20 20 20 20 20 21 20 21 20 21 21 21 20 19 19 18 17 16 16 16 17 17 17 16 17 17 17 17 17
15 15 16 16 18 17 18 18 19 20 21 20 20 21 21 21 21 21 21 21 22 22 22 22 22 21 20 20 18 17 15 14 14 15 16 16 16 16 17 17 17 17 17
15 16 16 17 18 18 18 19 20 20 21 21 21 21 21 21 21 21 22 22 23 22 22 22 20 19 19 19 18 17 15 16 16 18 15 15 16 17 17 17 17 16 16
16 17 17 18 18 19 19 20 21 21 22 22 22 22 22 22 22 22 22 22 22 22 21 19 19 19 19 17 16 15 17 18 16 18 16 15 16 16 16 17 17 16 16

GFSGL_con_lsi_150.txt.gz
Lid_Strength_Index
11 11 12 12 12 12 12 12 12 12 13 13 13 13 14 14 14 14 13 12 12 11 11 11 11 9 9 8 7 5 3 3 5 3 2 1 2 1 1 0 1 2 4
11 11 12 12 12 12 13 13 13 13 13 14 14 14 15 14 15 15 14 13 14 13 12 12 13 12 12 11 10 10 8 6 5 5 3 3 2 3 4 5 5 0 2
12 13 12 12 12 13 13 13 13 13 13 14 15 15 14 15 15 15 15 14 14 14 14 13 13 14 14 15 14 13 11 7 6 4 4 4 4 6 5 7 6 8 9
10 12 13 13 13 13 12 14 14 13 14 15 15 16 15 15 15 16 16 16 15 15 15 15 14 14 15 15 16 15 14 12 10 10 8 9 10 9 9 9 8 11 13
10 11 11 12 12 12 12 13 14 13 14 15 15 16 16 15 15 16 17 17 17 17 17 17 16 14 13 14 15 16 15 15 15 15 15 15 16 16 15 12 11 10 12
11 11 11 11 11 11 10 11 11 13 14 15 15 16 16 15 14 14 16 18 18 18 19 18 18 17 16 14 14 14 15 16 17 16 17 17 18 17 16 15 13 12 14
11 11 11 11 11 11 10 11 11 12 13 14 15 15 16 16 14 14 15 17 19 18 18 19 19 18 18 16 15 15 15 14 15 15 17 17 17 17 17 16 15 15 16
12 11 11 11 11 11 11 11 11 12 13 13 13 14 14 14 14 15 15 16 17 19 19 19 18 19 18 18 17 17 16 16 15 15 16 15 15 15 15 16 16 16 16
12 12 11 11 11 11 11 11 11 12 12 12 12 14 14 14 13 14 15 16 17 17 18 17 18 19 17 16 19 19 18 17 15 14 14 14 14 15 16 15 17 17 17
12 12 12 11 11 11 11 11 11 12 11 11 12 13 13 14 12 13 14 15 17 17 17 17 16 17 17 17 19 20 21 20 18 18 18 18 17 17 17 17 17 19 18
10 10 10 10 11 11 11 11 11 12 12 12 11 12 13 14 14 13 13 15 16 16 17 17 17 15 16 16 17 19 20 20 19 20 20 19 19 19 19 17 17 17 19
10 11 11 11 11 11 12 12 12 12 12 13 12 13 13 13 13 13 13 14 14 15 16 16 15 14 14 15 16 17 17 19 20 21 21 21 21 21 20 18 17 17 16
11 12 12 12 12 12 13 13 14 13 13 13 13 14 14 14 15 14 14 14 14 15 14 14 14 14 15 16 15 16 17 18 19 21 22 21 20 19 18 17 17 16 16
12 12 12 13 13 13 13 13 15 15 15 15 15 15 15 16 15 15 15 15 14 15 15 16 16 15 18 18 17 17 18 18 19 20 20 19 19 19 19 18 18 18 18
12 12 12 12 13 13 13 14 14 14 14 15 16 16 17 17 16 15 15 16 15 15 15 16 18 18 18 18 19 19 19 19 20 20 20 20 20 19 19 18 18 18 19
12 13 13 12 12 13 13 14 13 13 13 13 14 15 16 15 14 14 14 14 14 14 16 17 18 18 18 19 19 20 20 20 20 19 20 20 21 20 20 19 18 19 20
12 12 12 12 12 13 12 12 13 13 13 13 13 14 14 15 14 14 14 14 14 15 17 18 18 18 18 17 18 19 19 19 18 19 20 20 21 20 20 20 20 20 20
13 13 12 12 12 12 12 13 13 14 14 14 13 15 15 15 14 14 14 15 17 17 18 18 19 19 18 18 18 17 18 19 19 19 20 20 21 21 21 21 21 22 22
11 12 12 12 12 13 13 13 13 14 15 15 15 16 18 16 14 14 15 18 19 19 19 19 19 19 19 19 19 19 19 18 22 24 23 22 23 21 22 21 22 22 22
13 14 14 12 12 13 13 13 14 14 15 15 16 19 19 19 18 18 18 19 20 20 20 20 20 20 20 20 20 20 21 21 19 20 24 26 26 22 22 22 22 23 22
11 12 15 12 13 14 14 14 15 15 16 17 17 20 21 20 18 19 18 20 21 20 21 21 21 21 21 21 21 22 22 22 20 19 20 23 26 23 22 22 22 22 22
12 12 13 14 14 14 15 15 15 16 16 17 17 17 20 18 19 19 19 20 22 20 20 21 22 21 21 21 22 23 23 23 22 20 22 24 23 22 22 23 24 24 23
13 13 14 14 14 17 15 15 16 17 18 18 18 18 18 19 20 19 20 20 21 22 21 22 23 23 21 22 22 22 23 23 21 19 22 25 23 22 24 23 23 24 24
13 13 14 15 16 16 16 17 17 18 18 18 19 19 19 20 20 20 21 21 22 22 22 24 23 22 22 22 22 22 20 19 19 19 24 22 22 21 21 21 22 23 23
13 14 15 15 16 16 17 17 18 18 19 19 20 20 19 20 20 21 21 22 22 24 24 23 21 22 22 23 22 19 20 19 19 22 22 22 22 20 21 22 22 21 21
14 15 16 16 17 17 18 18 18 19 20 20 20 21 21 22 21 22 22 22 24 23 22 21 20 21 20 18 18 18 20 18 22 22 23 20 19 21 21 21 21 20 20

GFSGL_con_lsi_153.txt.gz
Lid_Strength_Index
13 13 14 13 13 13 14 15 15 14 14 16 15 15 14 14 15 15 15 15 15 15 15 12 13 11 12 11 10 7 4 4 5 3 3 3 3 3 1 1 1 1 1
13 13 14 13 13 14 14 15 15 16 15 16 16 16 15 15 15 16 17 16 17 17 17 15 13 12 13 12 12 11 10 6 5 5 3 3 4 5 3 4 4 4 6
15 15 13 13 13 16 16 15 16 17 16 16 16 16 15 15 16 16 17 18 18 17 17 16 15 13 14 14 14 13 12 11 10 7 9 9 7 11 8 5 6 6 6
13 14 14 16 14 14 16 18 20 18 18 17 17 16 15 14 15 16 17 18 18 18 17 17 16 15 14 15 15 15 14 13 14 14 14 15 14 12 11 12 8 10 10
11 11 13 15 13 13 15 18 20 19 17 19 17 17 16 15 14 17 17 18 18 18 18 17 16 15 14 14 15 17 16 16 16 17 17 17 17 16 16 14 11 10 12
12 11 11 11 12 14 14 14 14 18 20 16 18 17 16 14 13 14 16 19 18 19 19 18 18 16 17 15 15 15 16 18 18 18 18 18 18 17 16 14 13 11 12
11 11 11 12 12 13 12 13 14 15 15 15 16 16 15 14 13 13 14 17 18 18 18 18 18 18 18 19 17 17 16 16 17 17 18 18 18 17 16 16 14 16 17
12 12 11 12 12 12 13 14 14 13 14 14 15 15 15 13 12 13 13 16 17 17 17 17 18 18 18 19 19 20 20 18 17 17 17 17 16 16 16 15 14 13 15
13 13 12 12 13 13 13 13 13 13 12 14 14 15 16 15 12 12 13 15 16 16 16 15 16 17 16 17 19 20 21 21 18 17 16 16 16 15 15 15 16 17 17
13 13 13 12 12 13 12 13 13 13 12 12 14 15 14 15 12 12 13 14 16 16 16 15 14 15 16 16 19 20 22 21 21 20 20 19 18 17 16 16 16 18 18
11 11 12 12 13 14 14 13 13 13 13 14 14 16 16 14 15 12 12 15 15 16 16 16 15 14 15 16 17 19 20 20 21 22 21 21 20 20 18 18 17 16 18
12 12 13 13 12 12 14 14 14 14 16 16 15 15 15 15 13 13 12 13 13 15 16 16 16 14 14 15 16 16 16 19 20 21 22 22 22 22 20 19 18 17 17
12 13 14 14 14 14 15 15 17 16 16 15 15 17 17 15 16 14 13 13 13 16 14 14 14 15 15 16 16 17 18 19 20 21 22 22 21 20 19 19 19 18 19
13 14 15 15 15 15 14 15 16 17 16 16 17 19 19 17 17 15 15 16 14 14 15 16 16 15 18 19 19 18 19 20 20 21 21 21 19 20 20 19 21 20 21
13 13 14 14 14 15 15 15 15 15 15 17 20 20 24 22 20 14 14 14 17 15 16 16 17 18 19 20 20 20 20 20 20 21 22 22 21 20 20 19 20 20 22
14 14 13 13 14 14 15 15 13 14 13 13 14 18 20 15 13 13 13 13 13 14 17 19 20 20 20 19 19 20 21 20 20 20 21 22 22 21 21 20 20 21 22
13 13 13 12 12 13 13 13 16 14 13 12 13 13 13 13 13 13 13 14 14 16 19 20 21 21 20 19 20 20 19 20 19 20 21 21 21 21 21 21 21 22 22
15 13 14 15 16 16 17 17 17 18 18 17 14 15 14 13 13 13 15 16 20 19 19 20 21 21 20 20 21 21 20 19 19 19 21 22 23 21 22 22 22 23 22
13 17 17 17 18 17 18 17 17 18 18 18 17 19 19 14 14 14 16 22 22 21 21 21 21 21 22 21 23 23 23 23 22 20 24 24 28 23 24 23 23 24 23
17 17 17 17 17 17 17 17 17 17 18 20 22 23 22 21 24 24 21 26 24 23 23 22 22 22 23 23 24 25 24 24 23 21 26 30 29 24 24 24 24 24 23
17 16 17 15 15 16 17 17 17 19 20 21 23 24 23 21 25 23 21 26 25 24 26 24 25 25 23 23 23 25 25 27 24 23 21 25 30 27 23 23 24 23 23
14 14 14 15 15 17 17 16 17 18 19 21 22 20 22 25 24 24 23 27 29 26 24 25 26 24 22 23 26 29 27 29 27 24 23 25 25 24 24 24 26 26 24
14 15 15 15 15 17 17 17 19 20 23 24 23 23 24 27 28 23 23 28 27 28 27 28 30 26 22 27 29 28 28 23 22 22 25 29 25 25 26 24 25 26 26
15 17 16 18 20 20 23 25 24 21 22 25 27 27 27 28 29 24 26 30 28 31 33 31 27 24 25 29 28 25 21 22 23 25 29 30 26 24 23 25 26 28 26
19 22 22 21 22 24 25 24 26 27 27 28 28 27 25 29 26 29 31 29 30 32 28 27 27 25 25 25 24 21 22 21 24 26 27 27 27 25 26 26 28 24 25
19 19 21 22 23 24 26 27 27 26 28 30 30 29 30 30 27 31 28 29 30 28 27 25 24 23 22 22 21 18 22 22 26 26 28 25 25 26 27 26 25 24 22

GFSGL_con_lsi_156.txt.gz
Lid_Strength_Index
12 13 13 13 13 14 15 15 14 15 15 16 16 16 16 16 16 17 16 16 16 16 16 16 15 14 14 13 13 11 10 8 6 4 2 1 5 4 2 1 2 2 7
12 12 12 13 13 14 15 14 14 16 16 16 17 17 15 17 17 18 18 17 17 18 17 17 16 15 14 13 13 13 12 10 10 4 7 8 10 10 6 6 4 5 6
13 13 13 14 14 15 15 15 15 16 17 17 17 17 17 16 17 18 19 18 18 17 18 18 17 16 15 14 15 14 13 13 12 10 12 12 11 12 9 8 9 8 8
12 14 16 16 14 13 14 18 18 18 19 19 19 18 17 16 16 17 17 18 18 18 17 17 17 16 16 16 15 16 15 14 13 15 14 16 14 14 13 13 10 11 12
11 12 13 15 12 13 16 19 19 20 20 21 20 20 18 15 15 17 17 18 18 18 17 17 17 15 15 15 16 16 17 16 17 16 17 16 17 16 16 13 11 11 13
11 11 11 11 11 13 14 15 15 19 21 20 20 19 19 14 13 13 15 18 18 17 18 18 17 16 17 16 16 16 16 18 18 18 19 19 19 18 16 14 15 13 14
11 11 11 12 12 12 12 13 14 15 16 17 18 16 16 14 12 13 13 16 17 16 17 18 18 17 17 19 18 18 18 17 18 18 20 19 19 18 17 16 15 16 17
12 12 12 11 12 12 13 13 13 14 15 15 16 15 15 13 12 13 13 15 15 15 15 16 17 17 17 18 19 20 21 20 19 19 19 19 18 17 17 16 16 15 16
13 12 12 12 12 12 13 13 13 13 14 15 15 15 16 15 12 12 14 15 15 15 14 14 15 16 15 15 18 20 21 22 19 18 18 18 17 17 17 16 17 17 19
12 12 13 12 12 13 13 13 13 12 13 14 15 16 14 16 13 12 13 14 16 15 16 15 14 15 15 15 18 19 21 22 22 21 21 20 19 19 18 18 17 18 18
11 11 12 12 13 14 14 13 14 14 14 15 16 17 18 16 16 12 12 14 17 16 16 16 15 14 15 15 15 18 19 19 20 21 22 21 21 20 20 20 19 19 20
11 11 12 12 12 14 15 15 14 15 17 17 16 17 17 17 14 13 12 12 13 16 15 16 16 14 15 15 17 16 17 19 20 21 22 22 22 22 21 20 20 20 19
12 13 14 13 14 14 15 15 16 16 17 16 17 19 19 16 17 13 13 12 12 15 14 14 14 15 16 17 16 17 18 20 21 22 22 22 21 21 20 21 20 20 20
14 14 15 15 15 15 14 15 16 16 16 16 17 20 20 19 19 17 15 15 14 15 17 17 17 15 18 18 19 19 19 20 21 22 22 21 20 20 21 21 22 22 22
14 14 15 15 15 15 14 15 14 16 15 17 20 20 23 20 19 14 13 14 17 17 20 19 19 20 20 20 19 19 20 20 21 22 22 22 21 22 21 20 21 21 22
14 14 14 15 15 15 15 15 12 14 12 12 13 18 20 14 12 12 13 13 14 15 19 23 22 21 20 21 21 20 20 20 20 21 22 21 21 22 22 22 22 23 23
15 14 14 13 14 14 15 14 17 14 12 12 13 13 13 13 12 13 14 15 15 17 21 23 23 22 21 21 21 21 22 21 19 20 21 22 21 22 22 22 23 23 23
16 15 16 17 18 19 21 20 20 19 20 18 15 15 13 13 13 14 16 17 21 20 20 22 23 22 21 22 22 23 23 22 21 20 22 23 24 22 23 23 23 24 23
14 19 19 21 22 21 21 22 21 21 19 19 20 19 20 14 15 16 17 23 23 23 22 22 23 23 23 23 28 27 30 25 23 22 24 25 28 23 24 23 24 24 23
18 19 19 20 20 20 20 18 18 18 19 21 23 24 24 22 26 28 29 31 28 26 26 23 23 24 24 25 29 32 28 27 24 23 26 32 32 26 26 25 25 25 24
18 18 18 16 17 18 19 18 19 21 21 23 25 27 24 23 26 26 26 29 28 27 29 26 27 28 24 26 24 27 28 32 26 24 23 26 33 30 25 25 25 25 24
16 16 15 16 16 18 18 17 18 19 20 22 22 21 24 27 24 24 25 29 32 28 26 29 28 26 23 25 28 34 31 31 26 25 27 28 27 27 27 27 29 29 26
15 15 15 16 17 20 20 19 21 22 23 24 23 23 25 29 28 25 27 30 29 31 31 30 32 28 26 30 31 26 27 25 24 27 31 32 27 27 30 29 28 28 28
16 17 16 20 21 21 25 27 25 22 22 26 28 28 29 30 32 32 32 34 34 35 35 34 29 27 26 28 27 26 23 23 23 27 31 31 29 25 29 28 27 30 30
19 21 21 22 22 25 26 24 25 24 26 28 30 31 30 32 30 35 35 34 33 35 31 30 29 27 26 26 25 22 22 23 27 28 29 29 30 30 29 28 30 26 28
19 20 21 21 23 24 23 24 24 26 28 31 33 35 34 32 32 35 33 32 32 31 29 28 26 25 23 22 20 20 23 25 27 28 31 27 28 28 29 28 27 27 24

GFSGL_con_lsi_162.txt.gz
Lid_Strength_Index
13 14 14 14 13 14 14 15 15 15 15 15 14 14 15 16 16 17 17 17 18 17 17 17 17 15 16 16 15 15 15 14 15 13 10 8 7 9 7 4 6 8 9
13 13 13 13 14 14 15 15 15 16 15 14 14 14 14 16 17 18 18 18 19 18 18 17 18 16 17 16 16 16 16 14 15 15 13 13 12 10 10 8 8 9 10
15 14 13 13 15 17 17 16 16 16 16 15 15 15 15 16 17 18 18 18 19 18 18 17 18 18 18 18 18 17 17 16 15 16 16 14 13 13 13 9 11 10 10
13 15 16 16 19 19 17 19 19 17 17 17 17 17 16 15 15 16 17 18 17 18 17 17 16 17 17 17 18 18 17 17 17 17 17 16 16 14 14 13 12 13 13
13 14 15 14 15 17 18 19 18 17 17 18 17 17 17 15 14 16 18 19 19 18 18 17 16 15 14 14 15 16 17 19 19 19 18 18 18 18 17 14 12 14 14
13 13 13 13 13 15 15 14 14 16 17 17 18 17 18 13 12 13 16 20 20 18 19 18 17 15 16 15 14 14 15 18 20 20 20 20 20 20 17 16 16 15 15
12 13 13 13 13 14 13 14 14 15 15 16 17 16 16 15 12 13 14 18 19 19 20 18 17 16 16 18 16 16 17 16 17 19 20 21 20 20 19 17 16 17 18
13 13 13 13 13 13 13 14 14 15 15 16 16 15 15 13 12 13 13 15 15 16 16 16 16 16 15 16 17 18 19 19 17 17 19 20 19 19 19 18 18 16 17
13 13 13 12 12 12 13 14 15 15 16 16 16 17 16 15 12 12 13 15 15 16 15 14 15 15 14 15 17 18 19 20 17 16 17 17 18 17 18 19 20 20 20
13 13 13 12 12 13 13 13 13 15 15 15 16 18 16 16 13 11 13 14 17 16 16 16 13 14 14 15 18 19 21 21 20 20 20 20 19 19 19 20 21 22 21
13 13 13 12 13 13 14 13 14 14 16 17 18 18 19 17 15 11 12 14 18 16 17 16 15 14 14 14 15 18 19 20 19 20 20 21 21 21 21 20 21 22 23
13 13 13 13 12 13 14 14 14 17 19 20 18 18 17 17 13 12 12 12 13 15 16 17 16 14 14 14 16 16 17 19 19 20 21 21 22 22 21 21 20 20 21
13 13 13 13 13 14 15 16 16 17 18 18 18 21 20 17 16 13 13 13 14 17 16 15 14 15 16 17 15 16 19 20 21 21 22 22 21 21 21 20 20 20 20
13 14 13 14 15 15 15 16 17 18 19 18 19 22 22 17 18 16 16 17 16 18 20 20 20 17 20 21 20 20 20 20 21 21 21 21 20 21 21 21 21 21 22
14 14 14 14 15 16 16 17 17 18 17 19 22 22 24 22 18 15 15 17 19 18 23 22 23 23 22 22 21 22 21 20 21 21 21 21 21 21 22 21 21 21 22
15 14 14 15 15 16 16 17 14 15 14 14 14 19 21 13 12 13 13 14 15 17 22 26 26 27 25 23 23 23 22 21 20 20 21 21 21 21 22 21 22 22 23
14 14 14 14 15 16 16 16 17 14 12 13 13 13 12 13 13 14 15 15 16 19 23 25 28 26 24 22 22 23 22 21 20 21 21 22 21 21 22 23 23 23 23
14 14 15 16 16 17 18 19 19 17 19 24 17 14 13 13 14 15 16 18 22 21 21 23 24 23 22 23 23 24 24 23 22 22 23 24 24 22 23 24 24 24 24
14 16 17 18 18 18 20 20 20 20 20 23 21 19 20 14 15 16 18 24 24 23 22 23 23 23 23 23 27 28 29 25 24 26 26 25 27 23 24 24 24 25 24
16 17 18 18 20 20 20 20 20 20 19 20 21 24 24 22 28 31 30 33 29 26 25 24 24 23 25 24 26 30 26 26 24 24 27 28 28 24 24 25 25 25 24
16 18 18 17 18 19 19 19 20 21 22 23 25 28 26 24 26 27 26 29 27 26 28 26 26 26 24 25 24 27 26 28 24 25 26 25 29 26 24 24 24 24 24
16 16 16 17 17 19 19 19 20 21 21 22 24 23 24 26 24 25 26 29 33 28 27 27 27 25 25 25 26 29 27 28 27 26 26 26 24 24 24 24 25 25 24
15 16 16 17 18 21 21 20 22 22 23 24 23 23 25 28 28 26 28 34 30 31 31 29 31 27 26 29 27 25 26 24 23 25 26 26 24 23 25 24 24 24 25
16 17 17 19 20 20 22 24 24 24 23 24 26 27 27 29 33 32 35 37 34 36 37 35 30 28 27 28 27 25 22 23 23 24 27 26 24 23 23 23 23 25 24
17 18 19 19 20 22 24 24 25 24 24 26 30 30 29 32 31 35 37 36 34 36 31 31 31 27 28 26 25 23 21 23 26 27 25 25 25 25 24 24 25 23 24
17 18 19 20 22 23 23 24 24 24 26 29 31 31 31 31 31 36 35 34 32 32 31 30 28 28 26 23 21 20 24 26 27 27 25 23 23 23 23 24 24 24 23

GFSGL_con_lsi_168.txt.gz
Lid_Strength_Index
9 9 9 9 9 9 9 9 9 9 9 9 10 10 11 11 10 10 10 10 10 10 10 11 11 11 11 11 11 11 12 12 14 12 10 10 10 12 12 9 8 9 9
9 9 9 9 9 9 9 10 9 9 9 10 10 10 10 11 11 12 12 12 12 12 12 11 12 11 11 11 11 11 12 12 13 13 11 12 11 11 12 11 10 10 10
10 9 9 8 9 10 10 10 10 10 10 10 10 10 10 11 11 12 12 12 12 12 12 12 13 13 13 12 13 13 12 11 11 12 12 11 12 11 11 11 10 12 12
10 11 11 10 11 11 11 12 12 11 12 12 12 11 10 11 11 11 11 11 12 12 12 12 12 13 13 13 13 13 13 12 11 11 12 12 12 12 12 12 12 11 14
9 9 10 11 11 11 12 12 12 12 12 12 12 10 10 11 11 12 12 12 12 12 12 12 12 13 14 14 13 14 14 13 13 12 13 13 15 14 15 13 11 11 12
9 8 8 9 10 11 11 11 12 12 12 11 11 11 10 11 13 13 12 11 12 12 12 12 12 13 14 14 15 15 14 15 15 14 14 16 16 16 15 14 12 12 13
8 7 8 8 9 9 10 10 11 11 10 11 11 10 10 10 12 13 13 11 11 11 12 12 12 12 14 13 14 14 15 15 15 15 15 16 16 16 16 15 14 13 14
8 8 8 8 9 9 10 10 11 11 11 11 11 10 10 11 12 13 13 11 11 11 11 11 12 12 13 13 13 14 14 14 14 14 14 15 15 14 14 13 14 12 12
7 8 8 8 8 9 10 10 10 11 11 11 11 11 10 10 12 13 11 11 11 12 11 12 12 12 14 14 13 14 14 14 12 13 13 13 14 14 13 13 15 14 15
7 8 7 7 8 9 9 10 10 11 11 11 12 11 13 10 12 13 12 10 11 11 12 12 14 14 14 14 14 14 15 13 13 12 12 12 13 13 14 14 15 16 17
7 7 8 8 8 9 9 10 10 11 11 12 12 12 12 12 12 13 13 11 11 12 12 12 12 14 14 14 14 13 14 12 12 12 12 12 12 13 13 14 14 16 18
7 8 8 8 9 9 10 11 11 11 12 12 12 11 11 11 13 13 14 15 14 12 13 12 13 15 15 14 13 14 13 12 11 12 13 13 14 14 14 13 14 15 16
8 8 8 8 10 10 10 11 11 10 11 11 12 11 11 11 11 14 15 15 16 13 13 15 16 15 15 13 14 14 13 12 12 13 14 14 13 13 13 13 13 14 14
8 8 8 9 10 10 10 10 10 10 11 11 12 11 11 11 11 10 11 11 15 13 15 13 15 15 16 13 12 12 12 12 13 13 14 13 12 13 14 14 14 14 15
8 8 9 9 11 11 11 10 10 10 10 11 11 11 11 12 12 13 13 13 13 15 14 12 13 13 13 13 12 13 12 12 13 13 13 13 14 14 14 14 14 14 16
9 9 9 11 11 11 11 11 12 11 13 12 13 11 12 13 14 15 15 16 17 17 13 13 13 13 14 14 13 13 13 14 13 14 14 14 14 15 15 15 15 15 16
9 9 10 11 11 12 11 11 13 13 13 13 13 13 12 14 15 15 16 16 17 16 13 13 14 14 14 14 14 14 14 14 14 14 14 15 15 15 15 16 16 16 16
8 10 10 10 11 11 10 10 10 12 13 13 13 12 13 14 15 16 17 17 14 14 14 14 14 14 14 15 15 15 15 14 15 15 15 16 15 16 16 16 16 17 17
9 9 9 9 9 10 10 10 10 11 11 12 13 13 13 15 16 17 17 13 14 14 15 14 14 14 14 15 15 15 15 16 16 16 16 16 16 16 17 17 17 18 18
9 10 10 10 10 10 10 10 10 10 11 12 13 13 13 15 15 14 14 14 14 14 14 14 14 14 15 15 15 15 14 15 15 15 15 15 15 15 16 16 17 17 17
8 10 10 10 10 10 10 10 10 10 11 12 12 12 13 13 13 13 14 14 14 14 14 14 14 14 15 15 15 15 15 15 15 15 15 15 15 16 16 16 16 16 17
9 10 11 10 10 10 10 10 10 10 11 12 12 15 16 13 13 13 14 14 14 14 14 15 15 15 16 16 16 15 15 16 15 15 15 16 15 15 15 16 16 16 17
9 10 11 10 9 10 10 10 10 11 11 11 12 14 15 13 13 14 14 15 14 15 15 16 16 17 15 15 15 15 16 16 15 16 16 15 15 16 15 16 16 17 17
10 10 10 10 10 10 10 11 11 11 11 12 12 13 13 13 14 14 15 15 15 16 17 18 18 19 18 17 15 15 15 15 15 15 18 16 15 15 15 16 16 16 17
9 9 9 10 11 10 11 11 11 12 12 12 12 13 13 14 14 14 15 17 18 17 20 19 18 21 21 21 18 17 17 18 17 19 15 16 16 16 16 15 16 15 16
10 10 10 10 10 11 11 12 12 12 12 12 12 13 13 14 14 15 16 18 19 19 20 18 19 23 22 17 20 19 19 18 17 19 16 14 15 15 15 15 16 16 16